Observation data for Fort McKavett on 10/14/2019      Previous  Date       Current Mesonet Observations  Soil Data  Daily Summary Page  Observations in Plain Language
KMC1 140500Z 20005KT 19/07 A3003 RMK A01 T01880070  RH  046%=      5-min Rain = 0
KMC1 140501Z 20006KT 19/07 A3003 RMK A01 T01880070  RH  046%=      5-min Rain = 0
KMC1 140502Z 20005KT 19/07 A3003 RMK A01 T01880070  RH  046%=      5-min Rain = 0
KMC1 140503Z 20004KT 19/07 A3003 RMK A01 T01880070  RH  046%=      5-min Rain = 0
KMC1 140504Z 20006KT 19/07 A3003 RMK A01 T01880070  RH  046%=      5-min Rain = 0
KMC1 140505Z 21006KT 19/07 A3003 RMK A01 T01880069  RH  046%=      5-min Rain = 0
KMC1 140506Z 22005KT 19/07 A3004 RMK A01 T01880069  RH  046%=      5-min Rain = 0
KMC1 140507Z 21006KT 19/07 A3004 RMK A01 T01870069  RH  046%=      5-min Rain = 0
KMC1 140508Z 21006KT 19/07 A3004 RMK A01 T01880069  RH  046%=      5-min Rain = 0
KMC1 140509Z 21007KT 19/07 A3003 RMK A01 T01880069  RH  046%=      5-min Rain = 0
KMC1 140510Z 20005KT 19/07 A3003 RMK A01 T01880069  RH  046%=      5-min Rain = 0
KMC1 140511Z 19006KT 19/07 A3003 RMK A01 T01870068  RH  046%=      5-min Rain = 0
KMC1 140512Z 19004KT 19/07 A3003 RMK A01 T01880069  RH  046%=      5-min Rain = 0
KMC1 140513Z 19005KT 19/07 A3003 RMK A01 T01880069  RH  046%=      5-min Rain = 0
KMC1 140514Z 18005KT 19/07 A3003 RMK A01 T01880069  RH  046%=      5-min Rain = 0
KMC1 140515Z 18005KT 19/07 A3003 RMK A01 T01880069  RH  046%=      5-min Rain = 0
KMC1 140516Z 18005KT 19/07 A3003 RMK A01 T01880069  RH  046%=      5-min Rain = 0
KMC1 140517Z 19005KT 19/07 A3003 RMK A01 T01880069  RH  046%=      5-min Rain = 0
KMC1 140518Z 18005KT 19/07 A3003 RMK A01 T01880068  RH  046%=      5-min Rain = 0
KMC1 140519Z 19005KT 19/07 A3002 RMK A01 T01880069  RH  046%=      5-min Rain = 0
KMC1 140520Z 18004KT 19/07 A3002 RMK A01 T01880069  RH  046%=      5-min Rain = 0
KMC1 140521Z 19005KT 19/07 A3002 RMK A01 T01880069  RH  046%=      5-min Rain = 0
KMC1 140522Z 19005KT 19/07 A3003 RMK A01 T01880070  RH  046%=      5-min Rain = 0
KMC1 140523Z 20006KT 19/07 A3003 RMK A01 T01880070  RH  046%=      5-min Rain = 0
KMC1 140524Z 20005KT 19/07 A3003 RMK A01 T01880069  RH  046%=      5-min Rain = 0
KMC1 140525Z 20005KT 19/07 A3003 RMK A01 T01880069  RH  046%=      5-min Rain = 0
KMC1 140526Z 21006KT 19/07 A3003 RMK A01 T01880069  RH  046%=      5-min Rain = 0
KMC1 140527Z 21007KT 19/07 A3003 RMK A01 T01880069  RH  046%=      5-min Rain = 0
KMC1 140528Z 21006KT 19/07 A3003 RMK A01 T01880069  RH  046%=      5-min Rain = 0
KMC1 140529Z 21006KT 19/07 A3003 RMK A01 T01890070  RH  046%=      5-min Rain = 0
KMC1 140530Z 21006KT 19/07 A3003 RMK A01 T01880070  RH  046%=      5-min Rain = 0
KMC1 140531Z 22005KT 19/07 A3003 RMK A01 T01880070  RH  046%=      5-min Rain = 0
KMC1 140532Z 22005KT 19/07 A3003 RMK A01 T01890070  RH  046%=      5-min Rain = 0
KMC1 140533Z 21005KT 19/07 A3003 RMK A01 T01890070  RH  046%=      5-min Rain = 0
KMC1 140534Z 20005KT 19/07 A3002 RMK A01 T01890070  RH  046%=      5-min Rain = 0
KMC1 140535Z 20005KT 19/07 A3002 RMK A01 T01880070  RH  046%=      5-min Rain = 0
KMC1 140536Z 20005KT 19/07 A3002 RMK A01 T01890070  RH  046%=      5-min Rain = 0
KMC1 140537Z 20006KT 19/07 A3002 RMK A01 T01890070  RH  046%=      5-min Rain = 0
KMC1 140538Z 21005KT 19/07 A3002 RMK A01 T01890070  RH  046%=      5-min Rain = 0
KMC1 140539Z 21006KT 19/07 A3002 RMK A01 T01890070  RH  046%=      5-min Rain = 0
KMC1 140540Z 20005KT 19/07 A3002 RMK A01 T01890070  RH  046%=      5-min Rain = 0
KMC1 140541Z 20005KT 19/07 A3002 RMK A01 T01890070  RH  046%=      5-min Rain = 0
KMC1 140542Z 20006KT 19/07 A3002 RMK A01 T01890070  RH  046%=      5-min Rain = 0
KMC1 140543Z 20006KT 19/07 A3002 RMK A01 T01890070  RH  046%=      5-min Rain = 0
KMC1 140544Z 19004KT 19/07 A3002 RMK A01 T01880070  RH  046%=      5-min Rain = 0
KMC1 140545Z 19005KT 19/07 A3002 RMK A01 T01890071  RH  046%=      5-min Rain = 0
KMC1 140546Z 19005KT 19/07 A3002 RMK A01 T01890071  RH  046%=      5-min Rain = 0
KMC1 140547Z 19006KT 19/07 A3002 RMK A01 T01890071  RH  046%=      5-min Rain = 0
KMC1 140548Z 20006KT 19/07 A3002 RMK A01 T01890071  RH  046%=      5-min Rain = 0
KMC1 140549Z 19005KT 19/07 A3002 RMK A01 T01880071  RH  046%=      5-min Rain = 0
KMC1 140550Z 19005KT 19/07 A3002 RMK A01 T01890071  RH  046%=      5-min Rain = 0
KMC1 140551Z 19004KT 19/07 A3002 RMK A01 T01880071  RH  046%=      5-min Rain = 0
KMC1 140552Z 20005KT 19/07 A3002 RMK A01 T01890072  RH  047%=      5-min Rain = 0
KMC1 140553Z 20005KT 19/07 A3002 RMK A01 T01890072  RH  047%=      5-min Rain = 0
KMC1 140554Z 20005KT 19/07 A3002 RMK A01 T01890072  RH  047%=      5-min Rain = 0
KMC1 140555Z 20004KT 19/07 A3002 RMK A01 T01890072  RH  047%=      5-min Rain = 0
KMC1 140556Z 21005KT 19/07 A3002 RMK A01 T01890072  RH  047%=      5-min Rain = 0
KMC1 140557Z 21005KT 19/07 A3002 RMK A01 T01890072  RH  047%=      5-min Rain = 0
KMC1 140558Z 21005KT 19/07 A3002 RMK A01 T01890071  RH  046%=      5-min Rain = 0
KMC1 140559Z 21006KT 19/07 A3002 RMK A01 T01880071  RH  046%=      5-min Rain = 0
KMC1 140600Z 21004KT 19/07 A3002 RMK A01 T01890072  RH  046%=      5-min Rain = 0
KMC1 140601Z 22003KT 19/07 A3002 RMK A01 T01890072  RH  047%=      5-min Rain = 0
KMC1 140602Z 22004KT 19/07 A3002 RMK A01 T01890072  RH  047%=      5-min Rain = 0
KMC1 140603Z 22003KT 19/07 A3002 RMK A01 T01890073  RH  047%=      5-min Rain = 0
KMC1 140604Z 22005KT 19/07 A3002 RMK A01 T01890073  RH  047%=      5-min Rain = 0
KMC1 140605Z 23004KT 19/07 A3002 RMK A01 T01880073  RH  047%=      5-min Rain = 0
KMC1 140606Z 23004KT 19/07 A3002 RMK A01 T01880073  RH  047%=      5-min Rain = 0
KMC1 140607Z 25003KT 19/07 A3002 RMK A01 T01880073  RH  047%=      5-min Rain = 0
KMC1 140608Z 23004KT 19/07 A3002 RMK A01 T01880073  RH  047%=      5-min Rain = 0
KMC1 140609Z 24003KT 19/07 A3002 RMK A01 T01880074  RH  047%=      5-min Rain = 0
KMC1 140610Z 23003KT 19/07 A3002 RMK A01 T01880074  RH  048%=      5-min Rain = 0
KMC1 140611Z 23003KT 19/08 A3002 RMK A01 T01870075  RH  048%=      5-min Rain = 0
KMC1 140612Z 22002KT 19/08 A3002 RMK A01 T01870075  RH  048%=      5-min Rain = 0
KMC1 140613Z 22003KT 19/08 A3002 RMK A01 T01860075  RH  048%=      5-min Rain = 0
KMC1 140614Z 22003KT 19/07 A3002 RMK A01 T01860074  RH  048%=      5-min Rain = 0
KMC1 140615Z 22004KT 19/07 A3002 RMK A01 T01850074  RH  048%=      5-min Rain = 0
KMC1 140616Z 22004KT 19/07 A3002 RMK A01 T01850074  RH  048%=      5-min Rain = 0
KMC1 140617Z 22003KT 19/08 A3002 RMK A01 T01850075  RH  048%=      5-min Rain = 0
KMC1 140618Z 21004KT 19/07 A3002 RMK A01 T01850074  RH  048%=      5-min Rain = 0
KMC1 140619Z 22004KT 19/07 A3002 RMK A01 T01850074  RH  048%=      5-min Rain = 0
KMC1 140620Z 22003KT 19/08 A3002 RMK A01 T01850075  RH  048%=      5-min Rain = 0
KMC1 140621Z 21004KT 19/08 A3002 RMK A01 T01850075  RH  049%=      5-min Rain = 0
KMC1 140622Z 22004KT 19/07 A3002 RMK A01 T01850074  RH  049%=      5-min Rain = 0
KMC1 140623Z 22004KT 19/08 A3002 RMK A01 T01850075  RH  049%=      5-min Rain = 0
KMC1 140624Z 22004KT 19/08 A3002 RMK A01 T01850075  RH  049%=      5-min Rain = 0
KMC1 140625Z 22004KT 19/08 A3002 RMK A01 T01850075  RH  049%=      5-min Rain = 0
KMC1 140626Z 23004KT 19/08 A3002 RMK A01 T01850075  RH  049%=      5-min Rain = 0
KMC1 140627Z 22004KT 19/08 A3002 RMK A01 T01850075  RH  049%=      5-min Rain = 0
KMC1 140628Z 23004KT 18/08 A3002 RMK A01 T01840075  RH  049%=      5-min Rain = 0
KMC1 140629Z 22004KT 18/08 A3002 RMK A01 T01840075  RH  049%=      5-min Rain = 0
KMC1 140630Z 23004KT 18/08 A3002 RMK A01 T01840075  RH  049%=      5-min Rain = 0
KMC1 140631Z 23004KT 18/08 A3002 RMK A01 T01840075  RH  049%=      5-min Rain = 0
KMC1 140632Z 24004KT 18/08 A3002 RMK A01 T01840075  RH  049%=      5-min Rain = 0
KMC1 140633Z 23004KT 18/08 A3002 RMK A01 T01840076  RH  049%=      5-min Rain = 0
KMC1 140634Z 23004KT 18/08 A3002 RMK A01 T01830075  RH  049%=      5-min Rain = 0
KMC1 140635Z 23004KT 18/08 A3002 RMK A01 T01830076  RH  049%=      5-min Rain = 0
KMC1 140636Z 23004KT 18/08 A3002 RMK A01 T01830076  RH  050%=      5-min Rain = 0
KMC1 140637Z 22004KT 18/08 A3002 RMK A01 T01830076  RH  050%=      5-min Rain = 0
KMC1 140638Z 22004KT 18/08 A3002 RMK A01 T01830077  RH  050%=      5-min Rain = 0
KMC1 140639Z 21003KT 18/08 A3002 RMK A01 T01820076  RH  050%=      5-min Rain = 0
KMC1 140640Z 21004KT 18/08 A3002 RMK A01 T01820075  RH  050%=      5-min Rain = 0
KMC1 140641Z 21004KT 18/08 A3002 RMK A01 T01820075  RH  049%=      5-min Rain = 0
KMC1 140642Z 22004KT 18/08 A3002 RMK A01 T01830075  RH  050%=      5-min Rain = 0
KMC1 140643Z 22004KT 18/08 A3002 RMK A01 T01830075  RH  050%=      5-min Rain = 0
KMC1 140644Z 22005KT 18/08 A3002 RMK A01 T01830076  RH  050%=      5-min Rain = 0
KMC1 140645Z 23004KT 18/08 A3002 RMK A01 T01830076  RH  050%=      5-min Rain = 0
KMC1 140646Z 24005KT 18/08 A3002 RMK A01 T01830076  RH  050%=      5-min Rain = 0
KMC1 140647Z 24005KT 18/08 A3002 RMK A01 T01830076  RH  050%=      5-min Rain = 0
KMC1 140648Z 24005KT 18/08 A3002 RMK A01 T01830076  RH  050%=      5-min Rain = 0
KMC1 140649Z 23005KT 18/08 A3002 RMK A01 T01830077  RH  050%=      5-min Rain = 0
KMC1 140650Z 23005KT 18/08 A3002 RMK A01 T01830077  RH  050%=      5-min Rain = 0
KMC1 140651Z 22006KT 18/08 A3002 RMK A01 T01830077  RH  050%=      5-min Rain = 0
KMC1 140652Z 22005KT 18/08 A3002 RMK A01 T01830077  RH  050%=      5-min Rain = 0
KMC1 140653Z 22005KT 18/08 A3002 RMK A01 T01830078  RH  050%=      5-min Rain = 0
KMC1 140654Z 21006KT 18/08 A3002 RMK A01 T01830078  RH  050%=      5-min Rain = 0
KMC1 140655Z 21006KT 18/08 A3002 RMK A01 T01830078  RH  050%=      5-min Rain = 0
KMC1 140656Z 21006KT 18/08 A3002 RMK A01 T01830077  RH  050%=      5-min Rain = 0
KMC1 140657Z 21006KT 18/08 A3002 RMK A01 T01830078  RH  050%=      5-min Rain = 0
KMC1 140658Z 21006KT 18/08 A3002 RMK A01 T01830078  RH  050%=      5-min Rain = 0
KMC1 140659Z 20004KT 18/08 A3002 RMK A01 T01830078  RH  050%=      5-min Rain = 0
KMC1 140700Z 20005KT 18/08 A3002 RMK A01 T01830078  RH  050%=      5-min Rain = 0
KMC1 140701Z 21005KT 18/08 A3002 RMK A01 T01830078  RH  050%=      5-min Rain = 0
KMC1 140702Z 21004KT 18/08 A3002 RMK A01 T01830078  RH  050%=      5-min Rain = 0
KMC1 140703Z 22005KT 18/08 A3002 RMK A01 T01830079  RH  051%=      5-min Rain = 0
KMC1 140704Z 23005KT 18/08 A3002 RMK A01 T01830079  RH  050%=      5-min Rain = 0
KMC1 140705Z 23004KT 18/08 A3002 RMK A01 T01830079  RH  051%=      5-min Rain = 0
KMC1 140706Z 22005KT 18/08 A3002 RMK A01 T01830079  RH  051%=      5-min Rain = 0
KMC1 140707Z 21005KT 18/08 A3002 RMK A01 T01830078  RH  050%=      5-min Rain = 0
KMC1 140708Z 21005KT 18/08 A3002 RMK A01 T01830078  RH  050%=      5-min Rain = 0
KMC1 140709Z 21006KT 18/08 A3002 RMK A01 T01840078  RH  050%=      5-min Rain = 0
KMC1 140710Z 20005KT 18/08 A3002 RMK A01 T01840078  RH  050%=      5-min Rain = 0
KMC1 140711Z 20006KT 18/08 A3002 RMK A01 T01840078  RH  050%=      5-min Rain = 0
KMC1 140712Z 20006KT 19/08 A3002 RMK A01 T01850077  RH  050%=      5-min Rain = 0
KMC1 140713Z 21005KT 19/08 A3002 RMK A01 T01850078  RH  049%=      5-min Rain = 0
KMC1 140714Z 21005KT 19/08 A3002 RMK A01 T01860078  RH  049%=      5-min Rain = 0
KMC1 140715Z 21004KT 19/08 A3002 RMK A01 T01860078  RH  049%=      5-min Rain = 0
KMC1 140716Z 22004KT 19/08 A3002 RMK A01 T01860078  RH  049%=      5-min Rain = 0
KMC1 140717Z 22005KT 19/08 A3002 RMK A01 T01860079  RH  050%=      5-min Rain = 0
KMC1 140718Z 21004KT 19/08 A3002 RMK A01 T01860078  RH  050%=      5-min Rain = 0
KMC1 140719Z 22003KT 19/08 A3002 RMK A01 T01860079  RH  050%=      5-min Rain = 0
KMC1 140720Z 22003KT 19/08 A3001 RMK A01 T01860079  RH  050%=      5-min Rain = 0
KMC1 140721Z 22004KT 19/08 A3001 RMK A01 T01860079  RH  050%=      5-min Rain = 0
KMC1 140722Z 22004KT 19/08 A3001 RMK A01 T01860079  RH  050%=      5-min Rain = 0
KMC1 140723Z 23003KT 19/08 A3002 RMK A01 T01860079  RH  050%=      5-min Rain = 0
KMC1 140724Z 23004KT 19/08 A3002 RMK A01 T01860080  RH  050%=      5-min Rain = 0
KMC1 140725Z 23004KT 19/08 A3002 RMK A01 T01860080  RH  050%=      5-min Rain = 0
KMC1 140726Z 23005KT 19/08 A3002 RMK A01 T01860080  RH  050%=      5-min Rain = 0
KMC1 140727Z 22005KT 19/08 A3002 RMK A01 T01860080  RH  050%=      5-min Rain = 0
KMC1 140728Z 22005KT 19/08 A3002 RMK A01 T01860081  RH  050%=      5-min Rain = 0
KMC1 140729Z 22004KT 19/08 A3002 RMK A01 T01860081  RH  050%=      5-min Rain = 0
KMC1 140730Z 21004KT 19/08 A3002 RMK A01 T01860081  RH  050%=      5-min Rain = 0
KMC1 140731Z 22005KT 19/08 A3002 RMK A01 T01860081  RH  050%=      5-min Rain = 0
KMC1 140732Z 22004KT 19/08 A3002 RMK A01 T01860081  RH  050%=      5-min Rain = 0
KMC1 140733Z 23004KT 19/08 A3002 RMK A01 T01870082  RH  050%=      5-min Rain = 0
KMC1 140734Z 22005KT 19/08 A3002 RMK A01 T01870081  RH  050%=      5-min Rain = 0
KMC1 140735Z 21004KT 19/08 A3002 RMK A01 T01870081  RH  050%=      5-min Rain = 0
KMC1 140736Z 22005KT 19/08 A3002 RMK A01 T01870082  RH  050%=      5-min Rain = 0
KMC1 140737Z 21005KT 19/08 A3002 RMK A01 T01870082  RH  050%=      5-min Rain = 0
KMC1 140738Z 21005KT 19/08 A3002 RMK A01 T01880082  RH  050%=      5-min Rain = 0
KMC1 140739Z 21006KT 19/08 A3002 RMK A01 T01880082  RH  050%=      5-min Rain = 0
KMC1 140740Z 20005KT 19/08 A3002 RMK A01 T01890082  RH  050%=      5-min Rain = 0
KMC1 140741Z 20004KT 19/08 A3001 RMK A01 T01900082  RH  050%=      5-min Rain = 0
KMC1 140742Z 20004KT 19/08 A3001 RMK A01 T01900083  RH  050%=      5-min Rain = 0
KMC1 140743Z 21006KT 19/08 A3001 RMK A01 T01900083  RH  050%=      5-min Rain = 0
KMC1 140744Z 21005KT 19/08 A3001 RMK A01 T01910083  RH  050%=      5-min Rain = 0
KMC1 140745Z 21004KT 19/08 A3001 RMK A01 T01910083  RH  049%=      5-min Rain = 0
KMC1 140746Z 21005KT 19/08 A3001 RMK A01 T01910083  RH  050%=      5-min Rain = 0
KMC1 140747Z 21004KT 19/08 A3001 RMK A01 T01910083  RH  049%=      5-min Rain = 0
KMC1 140748Z 22005KT 19/08 A3002 RMK A01 T01910083  RH  049%=      5-min Rain = 0
KMC1 140749Z 22005KT 19/08 A3002 RMK A01 T01920083  RH  049%=      5-min Rain = 0
KMC1 140750Z 23005KT 19/08 A3002 RMK A01 T01920084  RH  049%=      5-min Rain = 0
KMC1 140751Z 23005KT 19/08 A3002 RMK A01 T01920084  RH  049%=      5-min Rain = 0
KMC1 140752Z 23005KT 19/08 A3002 RMK A01 T01920084  RH  050%=      5-min Rain = 0
KMC1 140753Z 23006KT 19/08 A3002 RMK A01 T01920084  RH  050%=      5-min Rain = 0
KMC1 140754Z 23005KT 19/08 A3002 RMK A01 T01920084  RH  050%=      5-min Rain = 0
KMC1 140755Z 23005KT 19/08 A3002 RMK A01 T01920084  RH  050%=      5-min Rain = 0
KMC1 140756Z 22005KT 19/08 A3002 RMK A01 T01920084  RH  050%=      5-min Rain = 0
KMC1 140757Z 22005KT 19/08 A3003 RMK A01 T01920084  RH  050%=      5-min Rain = 0
KMC1 140758Z 22006KT 19/09 A3003 RMK A01 T01920085  RH  050%=      5-min Rain = 0
KMC1 140759Z 22005KT 19/09 A3003 RMK A01 T01920085  RH  050%=      5-min Rain = 0
KMC1 140800Z 22004KT 19/09 A3003 RMK A01 T01920085  RH  050%=      5-min Rain = 0
KMC1 140801Z 22004KT 19/09 A3003 RMK A01 T01920085  RH  050%=      5-min Rain = 0
KMC1 140802Z 22005KT 19/09 A3003 RMK A01 T01920085  RH  050%=      5-min Rain = 0
KMC1 140803Z 22005KT 19/09 A3003 RMK A01 T01920086  RH  050%=      5-min Rain = 0
KMC1 140804Z 21005KT 19/09 A3003 RMK A01 T01920086  RH  050%=      5-min Rain = 0
KMC1 140805Z 21005KT 19/09 A3002 RMK A01 T01920086  RH  050%=      5-min Rain = 0
KMC1 140806Z 20005KT 19/09 A3002 RMK A01 T01930086  RH  050%=      5-min Rain = 0
KMC1 140807Z 20004KT 19/09 A3002 RMK A01 T01930086  RH  050%=      5-min Rain = 0
KMC1 140808Z 21004KT 19/09 A3002 RMK A01 T01930087  RH  050%=      5-min Rain = 0
KMC1 140809Z 21005KT 19/09 A3002 RMK A01 T01930087  RH  050%=      5-min Rain = 0
KMC1 140810Z 20005KT 19/09 A3002 RMK A01 T01930087  RH  050%=      5-min Rain = 0
KMC1 140811Z 20005KT 19/09 A3002 RMK A01 T01940088  RH  050%=      5-min Rain = 0
KMC1 140812Z 20005KT 19/09 A3002 RMK A01 T01930088  RH  050%=      5-min Rain = 0
KMC1 140813Z 19005KT 19/09 A3002 RMK A01 T01940088  RH  050%=      5-min Rain = 0
KMC1 140814Z 19005KT 19/09 A3002 RMK A01 T01940088  RH  050%=      5-min Rain = 0
KMC1 140815Z 20005KT 19/09 A3002 RMK A01 T01940089  RH  050%=      5-min Rain = 0
KMC1 140816Z 19005KT 19/09 A3002 RMK A01 T01940090  RH  051%=      5-min Rain = 0
KMC1 140817Z 19005KT 20/09 A3002 RMK A01 T01950090  RH  051%=      5-min Rain = 0
KMC1 140818Z 19004KT 20/09 A3002 RMK A01 T01950090  RH  051%=      5-min Rain = 0
KMC1 140819Z 19003KT 20/09 A3002 RMK A01 T01950090  RH  051%=      5-min Rain = 0
KMC1 140820Z 20004KT 20/09 A3002 RMK A01 T01950091  RH  051%=      5-min Rain = 0
KMC1 140821Z 20004KT 20/09 A3002 RMK A01 T01950091  RH  051%=      5-min Rain = 0
KMC1 140822Z 19004KT 20/09 A3002 RMK A01 T01950092  RH  051%=      5-min Rain = 0
KMC1 140823Z 18003KT 19/09 A3002 RMK A01 T01940091  RH  051%=      5-min Rain = 0
KMC1 140824Z 19003KT 20/09 A3002 RMK A01 T01950092  RH  052%=      5-min Rain = 0
KMC1 140825Z 20005KT 19/09 A3002 RMK A01 T01940093  RH  052%=      5-min Rain = 0
KMC1 140826Z 19004KT 20/09 A3002 RMK A01 T01950094  RH  052%=      5-min Rain = 0
KMC1 140827Z 20004KT 20/09 A3002 RMK A01 T01950094  RH  052%=      5-min Rain = 0
KMC1 140828Z 19005KT 20/10 A3001 RMK A01 T01960095  RH  052%=      5-min Rain = 0
KMC1 140829Z 19003KT 20/10 A3001 RMK A01 T01960095  RH  052%=      5-min Rain = 0
KMC1 140830Z 20006KT 20/10 A3002 RMK A01 T01950095  RH  052%=      5-min Rain = 0
KMC1 140831Z 19005KT 20/10 A3002 RMK A01 T01950096  RH  052%=      5-min Rain = 0
KMC1 140832Z 20005KT 20/10 A3002 RMK A01 T01960096  RH  052%=      5-min Rain = 0
KMC1 140833Z 20005KT 20/10 A3002 RMK A01 T01960096  RH  052%=      5-min Rain = 0
KMC1 140834Z 20003KT 20/10 A3002 RMK A01 T01960097  RH  053%=      5-min Rain = 0
KMC1 140835Z 20003KT 20/10 A3002 RMK A01 T01960097  RH  053%=      5-min Rain = 0
KMC1 140836Z 19005KT 20/10 A3002 RMK A01 T01960097  RH  053%=      5-min Rain = 0
KMC1 140837Z 19003KT 20/10 A3002 RMK A01 T01960097  RH  053%=      5-min Rain = 0
KMC1 140838Z 20004KT 20/10 A3002 RMK A01 T01960097  RH  053%=      5-min Rain = 0
KMC1 140839Z 21004KT 20/10 A3002 RMK A01 T01960098  RH  053%=      5-min Rain = 0
KMC1 140840Z 21003KT 20/10 A3002 RMK A01 T01960098  RH  053%=      5-min Rain = 0
KMC1 140841Z 21004KT 20/10 A3002 RMK A01 T01960098  RH  053%=      5-min Rain = 0
KMC1 140842Z 21003KT 20/10 A3002 RMK A01 T01960098  RH  053%=      5-min Rain = 0
KMC1 140843Z 21003KT 20/10 A3002 RMK A01 T01950099  RH  054%=      5-min Rain = 0
KMC1 140844Z 21005KT 20/10 A3002 RMK A01 T01950099  RH  054%=      5-min Rain = 0
KMC1 140845Z 21004KT 20/10 A3002 RMK A01 T01950099  RH  054%=      5-min Rain = 0
KMC1 140846Z 21005KT 20/10 A3002 RMK A01 T01950099  RH  054%=      5-min Rain = 0
KMC1 140847Z 21005KT 20/10 A3002 RMK A01 T01950100  RH  054%=      5-min Rain = 0
KMC1 140848Z 20005KT 19/10 A3002 RMK A01 T01940099  RH  054%=      5-min Rain = 0
KMC1 140849Z 19003KT 19/10 A3001 RMK A01 T01940100  RH  054%=      5-min Rain = 0
KMC1 140850Z 19004KT 19/10 A3001 RMK A01 T01940100  RH  055%=      5-min Rain = 0
KMC1 140851Z 19004KT 19/10 A3001 RMK A01 T01940100  RH  055%=      5-min Rain = 0
KMC1 140852Z 19004KT 19/10 A3001 RMK A01 T01930101  RH  055%=      5-min Rain = 0
KMC1 140853Z 19004KT 19/10 A3001 RMK A01 T01930101  RH  055%=      5-min Rain = 0
KMC1 140854Z 20004KT 19/10 A3001 RMK A01 T01930101  RH  055%=      5-min Rain = 0
KMC1 140855Z 20003KT 19/10 A3001 RMK A01 T01930102  RH  055%=      5-min Rain = 0
KMC1 140856Z 20004KT 19/10 A3001 RMK A01 T01930102  RH  056%=      5-min Rain = 0
KMC1 140857Z 19003KT 19/10 A3001 RMK A01 T01920102  RH  056%=      5-min Rain = 0
KMC1 140858Z 20004KT 19/10 A3001 RMK A01 T01920102  RH  056%=      5-min Rain = 0
KMC1 140859Z 19003KT 19/10 A3001 RMK A01 T01930103  RH  056%=      5-min Rain = 0
KMC1 140900Z 19003KT 19/10 A3001 RMK A01 T01920103  RH  056%=      5-min Rain = 0
KMC1 140901Z 18004KT 19/10 A3001 RMK A01 T01920103  RH  056%=      5-min Rain = 0
KMC1 140902Z 18003KT 19/10 A3001 RMK A01 T01920104  RH  057%=      5-min Rain = 0
KMC1 140903Z 18004KT 19/10 A3001 RMK A01 T01920104  RH  057%=      5-min Rain = 0
KMC1 140904Z 18003KT 19/10 A3001 RMK A01 T01910104  RH  057%=      5-min Rain = 0
KMC1 140905Z 18003KT 19/10 A3001 RMK A01 T01910104  RH  057%=      5-min Rain = 0
KMC1 140906Z 18003KT 19/10 A3001 RMK A01 T01910104  RH  057%=      5-min Rain = 0
KMC1 140907Z 18003KT 19/11 A3001 RMK A01 T01910105  RH  057%=      5-min Rain = 0
KMC1 140908Z 18002KT 19/10 A3001 RMK A01 T01900104  RH  057%=      5-min Rain = 0
KMC1 140909Z 16002KT 19/11 A3001 RMK A01 T01900105  RH  058%=      5-min Rain = 0
KMC1 140910Z 16002KT 19/11 A3001 RMK A01 T01900105  RH  058%=      5-min Rain = 0
KMC1 140911Z 16002KT 19/11 A3001 RMK A01 T01900105  RH  058%=      5-min Rain = 0
KMC1 140912Z 15002KT 19/11 A3001 RMK A01 T01890105  RH  058%=      5-min Rain = 0
KMC1 140913Z 16002KT 19/11 A3001 RMK A01 T01890105  RH  058%=      5-min Rain = 0
KMC1 140914Z 17002KT 19/11 A3001 RMK A01 T01890106  RH  059%=      5-min Rain = 0
KMC1 140915Z 17002KT 19/11 A3001 RMK A01 T01890106  RH  059%=      5-min Rain = 0
KMC1 140916Z 18002KT 19/11 A3001 RMK A01 T01890107  RH  059%=      5-min Rain = 0
KMC1 140917Z 21001KT 19/11 A3001 RMK A01 T01880107  RH  059%=      5-min Rain = 0
KMC1 140918Z 18001KT 19/11 A3001 RMK A01 T01880107  RH  059%=      5-min Rain = 0
KMC1 140919Z 16001KT 19/11 A30 RMK A01 T01880107  RH  059%=      5-min Rain = 0
KMC1 140920Z 16001KT 19/11 A30 RMK A01 T01880107  RH  059%=      5-min Rain = 0
KMC1 140921Z 16002KT 19/11 A30 RMK A01 T01880107  RH  059%=      5-min Rain = 0
KMC1 140922Z 14001KT 19/11 A30 RMK A01 T01870108  RH  060%=      5-min Rain = 0
KMC1 140923Z 15001KT 19/11 A30 RMK A01 T01870108  RH  060%=      5-min Rain = 0
KMC1 140924Z 13001KT 19/11 A30 RMK A01 T01870108  RH  060%=      5-min Rain = 0
KMC1 140925Z 14001KT 19/11 A30 RMK A01 T01860108  RH  060%=      5-min Rain = 0
KMC1 140926Z 15001KT 19/11 A30 RMK A01 T01860108  RH  061%=      5-min Rain = 0
KMC1 140927Z 16002KT 19/11 A30 RMK A01 T01860108  RH  061%=      5-min Rain = 0
KMC1 140928Z 15002KT 19/11 A30 RMK A01 T01850109  RH  061%=      5-min Rain = 0
KMC1 140929Z 16002KT 19/11 A30 RMK A01 T01850110  RH  061%=      5-min Rain = 0
KMC1 140930Z 16002KT 19/11 A30 RMK A01 T01850109  RH  061%=      5-min Rain = 0
KMC1 140931Z 16002KT 19/11 A30 RMK A01 T01860110  RH  061%=      5-min Rain = 0
KMC1 140932Z 16002KT 19/11 A30 RMK A01 T01850110  RH  061%=      5-min Rain = 0
KMC1 140933Z 16002KT 19/11 A30 RMK A01 T01850110  RH  062%=      5-min Rain = 0
KMC1 140934Z 16003KT 19/11 A30 RMK A01 T01850110  RH  062%=      5-min Rain = 0
KMC1 140935Z 17003KT 19/11 A30 RMK A01 T01850111  RH  062%=      5-min Rain = 0
KMC1 140936Z 17003KT 19/11 A30 RMK A01 T01860112  RH  062%=      5-min Rain = 0
KMC1 140937Z 17003KT 19/11 A30 RMK A01 T01860112  RH  062%=      5-min Rain = 0
KMC1 140938Z 17002KT 19/11 A30 RMK A01 T01860113  RH  062%=      5-min Rain = 0
KMC1 140939Z 17003KT 19/11 A30 RMK A01 T01860114  RH  063%=      5-min Rain = 0
KMC1 140940Z 19003KT 19/12 A30 RMK A01 T01870115  RH  063%=      5-min Rain = 0
KMC1 140941Z 18004KT 19/12 A30 RMK A01 T01870115  RH  063%=      5-min Rain = 0
KMC1 140942Z 18004KT 19/12 A30 RMK A01 T01870115  RH  063%=      5-min Rain = 0
KMC1 140943Z 19003KT 19/12 A30 RMK A01 T01880116  RH  063%=      5-min Rain = 0
KMC1 140944Z 19003KT 19/12 A30 RMK A01 T01880116  RH  063%=      5-min Rain = 0
KMC1 140945Z 19004KT 19/12 A30 RMK A01 T01890116  RH  063%=      5-min Rain = 0
KMC1 140946Z 19004KT 19/12 A30 RMK A01 T01890116  RH  063%=      5-min Rain = 0
KMC1 140947Z 19004KT 19/12 A30 RMK A01 T01890116  RH  063%=      5-min Rain = 0
KMC1 140948Z 18004KT 19/12 A30 RMK A01 T01890116  RH  063%=      5-min Rain = 0
KMC1 140949Z 18004KT 19/12 A30 RMK A01 T01890116  RH  063%=      5-min Rain = 0
KMC1 140950Z 18004KT 19/12 A30 RMK A01 T01890117  RH  063%=      5-min Rain = 0
KMC1 140951Z 19004KT 19/12 A30 RMK A01 T01900117  RH  063%=      5-min Rain = 0
KMC1 140952Z 18004KT 19/12 A30 RMK A01 T01900117  RH  062%=      5-min Rain = 0
KMC1 140953Z 18004KT 19/12 A30 RMK A01 T01910117  RH  062%=      5-min Rain = 0
KMC1 140954Z 18004KT 19/12 A30 RMK A01 T01910117  RH  062%=      5-min Rain = 0
KMC1 140955Z 18005KT 19/12 A30 RMK A01 T01910118  RH  062%=      5-min Rain = 0
KMC1 140956Z 19005KT 19/12 A30 RMK A01 T01910118  RH  062%=      5-min Rain = 0
KMC1 140957Z 19004KT 19/12 A30 RMK A01 T01910118  RH  062%=      5-min Rain = 0
KMC1 140958Z 19004KT 19/12 A30 RMK A01 T01910117  RH  062%=      5-min Rain = 0
KMC1 140959Z 18004KT 19/12 A30 RMK A01 T01910117  RH  062%=      5-min Rain = 0
KMC1 141000Z 18004KT 19/12 A30 RMK A01 T01910117  RH  062%=      5-min Rain = 0
KMC1 141001Z 18003KT 19/12 A30 RMK A01 T01910118  RH  062%=      5-min Rain = 0
KMC1 141002Z 19003KT 19/12 A30 RMK A01 T01910117  RH  062%=      5-min Rain = 0
KMC1 141003Z 18004KT 19/12 A30 RMK A01 T01910118  RH  062%=      5-min Rain = 0
KMC1 141004Z 19004KT 19/12 A30 RMK A01 T01910118  RH  062%=      5-min Rain = 0
KMC1 141005Z 19003KT 19/12 A30 RMK A01 T01910118  RH  062%=      5-min Rain = 0
KMC1 141006Z 19002KT 19/12 A3001 RMK A01 T01910118  RH  062%=      5-min Rain = 0
KMC1 141007Z 19002KT 19/12 A3001 RMK A01 T01910118  RH  062%=      5-min Rain = 0
KMC1 141008Z 18003KT 19/12 A3001 RMK A01 T01910118  RH  062%=      5-min Rain = 0
KMC1 141009Z 18004KT 19/12 A3001 RMK A01 T01910118  RH  063%=      5-min Rain = 0
KMC1 141010Z 19003KT 19/12 A3001 RMK A01 T01910119  RH  063%=      5-min Rain = 0
KMC1 141011Z 19004KT 19/12 A3001 RMK A01 T01910118  RH  063%=      5-min Rain = 0
KMC1 141012Z 19003KT 19/12 A3001 RMK A01 T01910119  RH  063%=      5-min Rain = 0
KMC1 141013Z 19002KT 19/12 A3001 RMK A01 T01910119  RH  063%=      5-min Rain = 0
KMC1 141014Z 19004KT 19/12 A3001 RMK A01 T01910119  RH  063%=      5-min Rain = 0
KMC1 141015Z 19004KT 19/12 A3001 RMK A01 T01910119  RH  063%=      5-min Rain = 0
KMC1 141016Z 19004KT 19/12 A3001 RMK A01 T01910119  RH  063%=      5-min Rain = 0
KMC1 141017Z 18004KT 19/12 A3001 RMK A01 T01910119  RH  063%=      5-min Rain = 0
KMC1 141018Z 18005KT 19/12 A3001 RMK A01 T01910119  RH  063%=      5-min Rain = 0
KMC1 141019Z 19005KT 19/12 A3001 RMK A01 T01910120  RH  063%=      5-min Rain = 0
KMC1 141020Z 18006KT 19/12 A3001 RMK A01 T01910120  RH  063%=      5-min Rain = 0
KMC1 141021Z 18006KT 19/12 A30 RMK A01 T01920120  RH  063%=      5-min Rain = 0
KMC1 141022Z 18005KT 19/12 A30 RMK A01 T01920120  RH  063%=      5-min Rain = 0
KMC1 141023Z 18005KT 19/12 A30 RMK A01 T01920121  RH  063%=      5-min Rain = 0
KMC1 141024Z 18004KT 19/12 A30 RMK A01 T01930121  RH  063%=      5-min Rain = 0
KMC1 141025Z 18004KT 19/12 A3001 RMK A01 T01930121  RH  063%=      5-min Rain = 0
KMC1 141026Z 17005KT 19/12 A3001 RMK A01 T01930121  RH  063%=      5-min Rain = 0
KMC1 141027Z 17004KT 19/12 A3001 RMK A01 T01930122  RH  063%=      5-min Rain = 0
KMC1 141028Z 19004KT 19/12 A3001 RMK A01 T01930122  RH  063%=      5-min Rain = 0
KMC1 141029Z 18004KT 19/12 A3001 RMK A01 T01930122  RH  064%=      5-min Rain = 0
KMC1 141030Z 19005KT 19/12 A3001 RMK A01 T01930122  RH  064%=      5-min Rain = 0
KMC1 141031Z 19005KT 19/12 A3001 RMK A01 T01930123  RH  064%=      5-min Rain = 0
KMC1 141032Z 18005KT 19/12 A3001 RMK A01 T01930123  RH  064%=      5-min Rain = 0
KMC1 141033Z 19004KT 19/12 A3001 RMK A01 T01940124  RH  064%=      5-min Rain = 0
KMC1 141034Z 19005KT 19/12 A3001 RMK A01 T01940123  RH  064%=      5-min Rain = 0
KMC1 141035Z 20003KT 19/12 A3001 RMK A01 T01940123  RH  064%=      5-min Rain = 0
KMC1 141036Z 18004KT 19/12 A3001 RMK A01 T01940124  RH  064%=      5-min Rain = 0
KMC1 141037Z 19005KT 19/12 A3001 RMK A01 T01940124  RH  064%=      5-min Rain = 0
KMC1 141038Z 19005KT 19/12 A3001 RMK A01 T01940124  RH  064%=      5-min Rain = 0
KMC1 141039Z 19004KT 19/12 A3001 RMK A01 T01940124  RH  064%=      5-min Rain = 0
KMC1 141040Z 19006KT 19/12 A3001 RMK A01 T01940124  RH  064%=      5-min Rain = 0
KMC1 141041Z 18005KT 19/12 A3001 RMK A01 T01940124  RH  064%=      5-min Rain = 0
KMC1 141042Z 19005KT 19/13 A3001 RMK A01 T01940125  RH  064%=      5-min Rain = 0
KMC1 141043Z 18005KT 19/13 A3001 RMK A01 T01940125  RH  064%=      5-min Rain = 0
KMC1 141044Z 18006KT 20/13 A3001 RMK A01 T01950125  RH  064%=      5-min Rain = 0
KMC1 141045Z 18006KT 20/13 A3001 RMK A01 T01950125  RH  064%=      5-min Rain = 0
KMC1 141046Z 18006KT 20/13 A3001 RMK A01 T01950125  RH  064%=      5-min Rain = 0
KMC1 141047Z 17005KT 20/13 A3001 RMK A01 T01950125  RH  064%=      5-min Rain = 0
KMC1 141048Z 18006KT 20/13 A3001 RMK A01 T01950125  RH  064%=      5-min Rain = 0
KMC1 141049Z 18005KT 20/13 A3001 RMK A01 T01950125  RH  064%=      5-min Rain = 0
KMC1 141050Z 18006KT 20/13 A3001 RMK A01 T01950126  RH  064%=      5-min Rain = 0
KMC1 141051Z 18007KT 20/13 A3001 RMK A01 T01950126  RH  064%=      5-min Rain = 0
KMC1 141052Z 17007KT 20/13 A3001 RMK A01 T01950126  RH  064%=      5-min Rain = 0
KMC1 141053Z 17005KT 20/13 A3001 RMK A01 T01960126  RH  064%=      5-min Rain = 0
KMC1 141054Z 17004KT 20/13 A3001 RMK A01 T01960126  RH  064%=      5-min Rain = 0
KMC1 141055Z 17006KT 20/13 A3001 RMK A01 T01960127  RH  064%=      5-min Rain = 0
KMC1 141056Z 18006KT 20/13 A3001 RMK A01 T01960127  RH  064%=      5-min Rain = 0
KMC1 141057Z 17005KT 20/13 A3001 RMK A01 T01960127  RH  064%=      5-min Rain = 0
KMC1 141058Z 17005KT 20/13 A3001 RMK A01 T01960127  RH  064%=      5-min Rain = 0
KMC1 141059Z 19005KT 20/13 A3001 RMK A01 T01960127  RH  064%=      5-min Rain = 0
KMC1 141100Z 19005KT 20/13 A3001 RMK A01 T01960127  RH  065%=      5-min Rain = 0
KMC1 141101Z 17003KT 20/13 A3001 RMK A01 T01960128  RH  065%=      5-min Rain = 0
KMC1 141102Z 19004KT 20/13 A3002 RMK A01 T01960128  RH  065%=      5-min Rain = 0
KMC1 141103Z 19004KT 20/13 A3002 RMK A01 T01950128  RH  065%=      5-min Rain = 0
KMC1 141104Z 19003KT 20/13 A3002 RMK A01 T01950128  RH  065%=      5-min Rain = 0
KMC1 141105Z 18005KT 20/13 A3002 RMK A01 T01950128  RH  065%=      5-min Rain = 0
KMC1 141106Z 19005KT 20/13 A3002 RMK A01 T01950128  RH  065%=      5-min Rain = 0
KMC1 141107Z 20004KT 20/13 A3002 RMK A01 T01950128  RH  065%=      5-min Rain = 0
KMC1 141108Z 21004KT 20/13 A3002 RMK A01 T01950128  RH  065%=      5-min Rain = 0
KMC1 141109Z 19004KT 20/13 A3002 RMK A01 T01950128  RH  065%=      5-min Rain = 0
KMC1 141110Z 19004KT 20/13 A3002 RMK A01 T01950128  RH  065%=      5-min Rain = 0
KMC1 141111Z 19005KT 20/13 A3002 RMK A01 T01960128  RH  065%=      5-min Rain = 0
KMC1 141112Z 20004KT 20/13 A3002 RMK A01 T01950128  RH  065%=      5-min Rain = 0
KMC1 141113Z 20005KT 20/13 A3002 RMK A01 T01960128  RH  065%=      5-min Rain = 0
KMC1 141114Z 20004KT 20/13 A3002 RMK A01 T01960128  RH  065%=      5-min Rain = 0
KMC1 141115Z 19004KT 20/13 A3002 RMK A01 T01950128  RH  065%=      5-min Rain = 0
KMC1 141116Z 20005KT 20/13 A3002 RMK A01 T01950129  RH  065%=      5-min Rain = 0
KMC1 141117Z 19005KT 20/13 A3003 RMK A01 T01950129  RH  065%=      5-min Rain = 0
KMC1 141118Z 19005KT 20/13 A3003 RMK A01 T01950129  RH  065%=      5-min Rain = 0
KMC1 141119Z 20004KT 20/13 A3003 RMK A01 T01950129  RH  065%=      5-min Rain = 0
KMC1 141120Z 19004KT 20/13 A3003 RMK A01 T01950129  RH  065%=      5-min Rain = 0
KMC1 141121Z 20004KT 20/13 A3003 RMK A01 T01950129  RH  065%=      5-min Rain = 0
KMC1 141122Z 19003KT 20/13 A3003 RMK A01 T01950130  RH  066%=      5-min Rain = 0
KMC1 141123Z 18004KT 20/13 A3003 RMK A01 T01950130  RH  066%=      5-min Rain = 0
KMC1 141124Z 19004KT 20/13 A3003 RMK A01 T01950130  RH  066%=      5-min Rain = 0
KMC1 141125Z 19004KT 20/13 A3003 RMK A01 T01950130  RH  066%=      5-min Rain = 0
KMC1 141126Z 18005KT 19/13 A3002 RMK A01 T01940131  RH  067%=      5-min Rain = 0
KMC1 141127Z 18005KT 20/13 A3002 RMK A01 T01950131  RH  067%=      5-min Rain = 0
KMC1 141128Z 19004KT 19/13 A3002 RMK A01 T01940131  RH  067%=      5-min Rain = 0
KMC1 141129Z 19006KT 19/13 A3003 RMK A01 T01940132  RH  067%=      5-min Rain = 0
KMC1 141130Z 19005KT 19/13 A3003 RMK A01 T01940132  RH  067%=      5-min Rain = 0
KMC1 141131Z 19005KT 19/13 A3003 RMK A01 T01940132  RH  068%=      5-min Rain = 0
KMC1 141132Z 19005KT 19/13 A3003 RMK A01 T01930133  RH  068%=      5-min Rain = 0
KMC1 141133Z 19005KT 19/13 A3003 RMK A01 T01930132  RH  068%=      5-min Rain = 0
KMC1 141134Z 19004KT 19/13 A3003 RMK A01 T01930133  RH  068%=      5-min Rain = 0
KMC1 141135Z 18004KT 19/13 A3003 RMK A01 T01930133  RH  068%=      5-min Rain = 0
KMC1 141136Z 19004KT 19/13 A3003 RMK A01 T01930133  RH  068%=      5-min Rain = 0
KMC1 141137Z 19003KT 19/13 A3003 RMK A01 T01930133  RH  068%=      5-min Rain = 0
KMC1 141138Z 19003KT 19/13 A3003 RMK A01 T01920134  RH  069%=      5-min Rain = 0
KMC1 141139Z 20003KT 19/13 A3003 RMK A01 T01920134  RH  069%=      5-min Rain = 0
KMC1 141140Z 21002KT 19/13 A3003 RMK A01 T01910134  RH  069%=      5-min Rain = 0
KMC1 141141Z 20003KT 19/13 A3003 RMK A01 T01910134  RH  070%=      5-min Rain = 0
KMC1 141142Z 20003KT 19/13 A3003 RMK A01 T01910134  RH  070%=      5-min Rain = 0
KMC1 141143Z 21003KT 19/13 A3003 RMK A01 T01900134  RH  070%=      5-min Rain = 0
KMC1 141144Z 21003KT 19/13 A3003 RMK A01 T01900134  RH  070%=      5-min Rain = 0
KMC1 141145Z 21003KT 19/13 A3003 RMK A01 T01900134  RH  070%=      5-min Rain = 0
KMC1 141146Z 19004KT 19/14 A3003 RMK A01 T01900135  RH  070%=      5-min Rain = 0
KMC1 141147Z 20004KT 19/14 A3003 RMK A01 T01900135  RH  070%=      5-min Rain = 0
KMC1 141148Z 19003KT 19/14 A3003 RMK A01 T01890135  RH  071%=      5-min Rain = 0
KMC1 141149Z 19003KT 19/14 A3003 RMK A01 T01890135  RH  071%=      5-min Rain = 0
KMC1 141150Z 20003KT 19/14 A3003 RMK A01 T01890135  RH  071%=      5-min Rain = 0
KMC1 141151Z 20003KT 19/14 A3003 RMK A01 T01890135  RH  071%=      5-min Rain = 0
KMC1 141152Z 19002KT 19/14 A3003 RMK A01 T01890135  RH  071%=      5-min Rain = 0
KMC1 141153Z 20003KT 19/14 A3003 RMK A01 T01890135  RH  071%=      5-min Rain = 0
KMC1 141154Z 21002KT 19/14 A3003 RMK A01 T01890135  RH  071%=      5-min Rain = 0
KMC1 141155Z 22002KT 19/14 A3003 RMK A01 T01890136  RH  071%=      5-min Rain = 0
KMC1 141156Z 23001KT 19/14 A3004 RMK A01 T01890136  RH  071%=      5-min Rain = 0
KMC1 141157Z 27001KT 19/14 A3004 RMK A01 T01890136  RH  071%=      5-min Rain = 0
KMC1 141158Z 26000KT 19/14 A3004 RMK A01 T01890137  RH  072%=      5-min Rain = 0
KMC1 141159Z 26000KT 19/14 A3004 RMK A01 T01880137  RH  072%=      5-min Rain = 0
KMC1 141200Z 00000KT 19/14 A3004 RMK A01 T01880137  RH  072%=      5-min Rain = 0
KMC1 141201Z 20000KT 19/14 A3004 RMK A01 T01880137  RH  072%=      5-min Rain = 0
KMC1 141202Z 20000KT 19/14 A3004 RMK A01 T01870136  RH  072%=      5-min Rain = 0
KMC1 141203Z 00000KT 19/14 A3004 RMK A01 T01870137  RH  072%=      5-min Rain = 0
KMC1 141204Z 00000KT 19/14 A3004 RMK A01 T01870137  RH  073%=      5-min Rain = 0
KMC1 141205Z 00000KT 19/14 A3004 RMK A01 T01870136  RH  072%=      5-min Rain = 0
KMC1 141206Z 24001KT 19/14 A3004 RMK A01 T01870137  RH  073%=      5-min Rain = 0
KMC1 141207Z 25001KT 19/14 A3004 RMK A01 T01860136  RH  072%=      5-min Rain = 0
KMC1 141208Z 26001KT 19/14 A3004 RMK A01 T01860136  RH  072%=      5-min Rain = 0
KMC1 141209Z 24002KT 19/14 A3004 RMK A01 T01860136  RH  072%=      5-min Rain = 0
KMC1 141210Z 27001KT 19/14 A3004 RMK A01 T01860137  RH  073%=      5-min Rain = 0
KMC1 141211Z 25001KT 19/14 A3004 RMK A01 T01860137  RH  073%=      5-min Rain = 0
KMC1 141212Z 25001KT 19/14 A3004 RMK A01 T01860137  RH  073%=      5-min Rain = 0
KMC1 141213Z 25001KT 19/14 A3004 RMK A01 T01860138  RH  074%=      5-min Rain = 0
KMC1 141214Z 28000KT 19/14 A3004 RMK A01 T01850138  RH  074%=      5-min Rain = 0
KMC1 141215Z 29001KT 19/14 A3004 RMK A01 T01850138  RH  074%=      5-min Rain = 0
KMC1 141216Z 29002KT 19/14 A3004 RMK A01 T01850138  RH  074%=      5-min Rain = 0
KMC1 141217Z 29002KT 18/14 A3004 RMK A01 T01840139  RH  075%=      5-min Rain = 0
KMC1 141218Z 29002KT 18/14 A3004 RMK A01 T01830140  RH  076%=      5-min Rain = 0
KMC1 141219Z 28003KT 18/14 A3005 RMK A01 T01830140  RH  076%=      5-min Rain = 0
KMC1 141220Z 27003KT 18/14 A3005 RMK A01 T01820140  RH  076%=      5-min Rain = 0
KMC1 141221Z 26003KT 18/14 A3005 RMK A01 T01810140  RH  077%=      5-min Rain = 0
KMC1 141222Z 25003KT 18/14 A3005 RMK A01 T01810140  RH  077%=      5-min Rain = 0
KMC1 141223Z 25003KT 18/14 A3005 RMK A01 T01800140  RH  077%=      5-min Rain = 0
KMC1 141224Z 23004KT 18/14 A3005 RMK A01 T01800140  RH  078%=      5-min Rain = 0
KMC1 141225Z 22004KT 18/14 A3004 RMK A01 T01800139  RH  077%=      5-min Rain = 0
KMC1 141226Z 21004KT 18/14 A3004 RMK A01 T01800139  RH  077%=      5-min Rain = 0
KMC1 141227Z 21005KT 18/14 A3004 RMK A01 T01810138  RH  076%=      5-min Rain = 0
KMC1 141228Z 21005KT 18/14 A3004 RMK A01 T01820138  RH  076%=      5-min Rain = 0
KMC1 141229Z 22005KT 18/14 A3004 RMK A01 T01830138  RH  075%=      5-min Rain = 0
KMC1 141230Z 22005KT 18/14 A3005 RMK A01 T01840139  RH  075%=      5-min Rain = 0
KMC1 141231Z 22005KT 18/14 A3005 RMK A01 T01840139  RH  075%=      5-min Rain = 0
KMC1 141232Z 22005KT 18/14 A3005 RMK A01 T01840141  RH  076%=      5-min Rain = 0
KMC1 141233Z 22005KT 18/14 A3005 RMK A01 T01830143  RH  077%=      5-min Rain = 0
KMC1 141234Z 21004KT 18/14 A3005 RMK A01 T01820142  RH  078%=      5-min Rain = 0
KMC1 141235Z 20005KT 18/14 A3005 RMK A01 T01810143  RH  078%=      5-min Rain = 0
KMC1 141236Z 20004KT 18/14 A3004 RMK A01 T01800143  RH  079%=      5-min Rain = 0
KMC1 141237Z 19005KT 18/14 A3004 RMK A01 T01800144  RH  080%=      5-min Rain = 0
KMC1 141238Z 20005KT 18/14 A3004 RMK A01 T01790144  RH  080%=      5-min Rain = 0
KMC1 141239Z 20005KT 18/14 A3004 RMK A01 T01790144  RH  080%=      5-min Rain = 0
KMC1 141240Z 18006KT 18/14 A3004 RMK A01 T01780143  RH  080%=      5-min Rain = 0
KMC1 141241Z 19006KT 18/14 A3004 RMK A01 T01790142  RH  079%=      5-min Rain = 0
KMC1 141242Z 19003KT 18/14 A3004 RMK A01 T01800144  RH  080%=      5-min Rain = 0
KMC1 141243Z 20004KT 18/15 A3004 RMK A01 T01800146  RH  080%=      5-min Rain = 0
KMC1 141244Z 20005KT 18/15 A3004 RMK A01 T01790146  RH  081%=      5-min Rain = 0
KMC1 141245Z 21004KT 18/15 A3004 RMK A01 T01790146  RH  081%=      5-min Rain = 0
KMC1 141246Z 21005KT 18/15 A3004 RMK A01 T01780146  RH  081%=      5-min Rain = 0
KMC1 141247Z 21005KT 18/15 A3004 RMK A01 T01790146  RH  081%=      5-min Rain = 0
KMC1 141248Z 20004KT 18/15 A3004 RMK A01 T01790146  RH  081%=      5-min Rain = 0
KMC1 141249Z 21003KT 18/15 A3004 RMK A01 T01790146  RH  081%=      5-min Rain = 0
KMC1 141250Z 21003KT 18/15 A3004 RMK A01 T01780146  RH  081%=      5-min Rain = 0
KMC1 141251Z 21003KT 18/15 A3004 RMK A01 T01780147  RH  082%=      5-min Rain = 0
KMC1 141252Z 21003KT 18/15 A3004 RMK A01 T01780147  RH  082%=      5-min Rain = 0
KMC1 141253Z 21002KT 18/15 A3004 RMK A01 T01770147  RH  083%=      5-min Rain = 0
KMC1 141254Z 21003KT 18/15 A3004 RMK A01 T01770148  RH  083%=      5-min Rain = 0
KMC1 141255Z 22003KT 18/15 A3004 RMK A01 T01760149  RH  084%=      5-min Rain = 0
KMC1 141256Z 22003KT 18/15 A3004 RMK A01 T01750148  RH  084%=      5-min Rain = 0
KMC1 141257Z 23002KT 18/15 A3004 RMK A01 T01750149  RH  084%=      5-min Rain = 0
KMC1 141258Z 23003KT 18/15 A3004 RMK A01 T01750150  RH  085%=      5-min Rain = 0
KMC1 141259Z 23003KT 18/15 A3004 RMK A01 T01750151  RH  086%=      5-min Rain = 0
KMC1 141300Z 23003KT 17/15 A3004 RMK A01 T01740150  RH  086%=      5-min Rain = 0
KMC1 141301Z 23002KT 17/15 A3004 RMK A01 T01740151  RH  086%=      5-min Rain = 0
KMC1 141302Z 22002KT 17/15 A3004 RMK A01 T01730150  RH  086%=      5-min Rain = 0
KMC1 141303Z 21003KT 17/15 A3004 RMK A01 T01730150  RH  086%=      5-min Rain = 0
KMC1 141304Z 21003KT 17/15 A3004 RMK A01 T01730150  RH  086%=      5-min Rain = 0
KMC1 141305Z 20003KT 17/15 A3004 RMK A01 T01720150  RH  087%=      5-min Rain = 0
KMC1 141306Z 20003KT 17/15 A3004 RMK A01 T01730150  RH  087%=      5-min Rain = 0
KMC1 141307Z 20002KT 17/15 A3004 RMK A01 T01730151  RH  087%=      5-min Rain = 0
KMC1 141308Z 20002KT 17/15 A3004 RMK A01 T01720150  RH  087%=      5-min Rain = 0
KMC1 141309Z 21001KT 17/15 A3004 RMK A01 T01720150  RH  087%=      5-min Rain = 0
KMC1 141310Z 21001KT 17/15 A3004 RMK A01 T01720151  RH  087%=      5-min Rain = 0
KMC1 141311Z 20001KT 17/15 A3004 RMK A01 T01720151  RH  087%=      5-min Rain = 0
KMC1 141312Z 19001KT 17/15 A3004 RMK A01 T01720152  RH  088%=      5-min Rain = 0
KMC1 141313Z 21002KT 17/15 A3004 RMK A01 T01720151  RH  088%=      5-min Rain = 0
KMC1 141314Z 20001KT 17/15 A3004 RMK A01 T01720151  RH  088%=      5-min Rain = 0
KMC1 141315Z 20000KT 17/15 A3004 RMK A01 T01710150  RH  087%=      5-min Rain = 0
KMC1 141316Z 19001KT 17/15 A3004 RMK A01 T01720151  RH  088%=      5-min Rain = 0
KMC1 141317Z 19001KT 17/15 A3004 RMK A01 T01720152  RH  088%=      5-min Rain = 0
KMC1 141318Z 20000KT 17/15 A3004 RMK A01 T01720152  RH  088%=      5-min Rain = 0
KMC1 141319Z 19001KT 17/15 A3004 RMK A01 T01720152  RH  088%=      5-min Rain = 0
KMC1 141320Z 20000KT 17/15 A3004 RMK A01 T01710152  RH  088%=      5-min Rain = 0
KMC1 141321Z 22000KT 17/15 A3004 RMK A01 T01710152  RH  088%=      5-min Rain = 0
KMC1 141322Z 00000KT 17/15 A3004 RMK A01 T01710153  RH  089%=      5-min Rain = 0
KMC1 141323Z 20000KT 17/15 A3004 RMK A01 T01710153  RH  089%=      5-min Rain = 0
KMC1 141324Z 00000KT 17/15 A3004 RMK A01 T01710153  RH  089%=      5-min Rain = 0
KMC1 141325Z 00000KT 17/15 A3004 RMK A01 T01710153  RH  089%=      5-min Rain = 0
KMC1 141326Z 14000KT 17/15 A3004 RMK A01 T01710154  RH  090%=      5-min Rain = 0
KMC1 141327Z 16001KT 17/16 A3004 RMK A01 T01710155  RH  090%=      5-min Rain = 0
KMC1 141328Z 15001KT 17/16 A3004 RMK A01 T01710155  RH  090%=      5-min Rain = 0
KMC1 141329Z 15001KT 17/16 A3004 RMK A01 T01710156  RH  091%=      5-min Rain = 0
KMC1 141330Z 15001KT 17/16 A3004 RMK A01 T01710157  RH  092%=      5-min Rain = 0
KMC1 141331Z 14001KT 17/16 A3004 RMK A01 T01710159  RH  093%=      5-min Rain = 0
KMC1 141332Z 15001KT 17/16 A3004 RMK A01 T01710159  RH  093%=      5-min Rain = 0
KMC1 141333Z 14002KT 17/16 A3004 RMK A01 T01700158  RH  093%=      5-min Rain = 0
KMC1 141334Z 13002KT 17/16 A3004 RMK A01 T01700158  RH  092%=      5-min Rain = 0
KMC1 141335Z 13002KT 17/16 A3004 RMK A01 T01700158  RH  093%=      5-min Rain = 0
KMC1 141336Z 13001KT 17/16 A3004 RMK A01 T01700158  RH  093%=      5-min Rain = 0
KMC1 141337Z 13001KT 17/16 A3004 RMK A01 T01700159  RH  093%=      5-min Rain = 0
KMC1 141338Z 13001KT 17/16 A3004 RMK A01 T01700159  RH  093%=      5-min Rain = 0
KMC1 141339Z 13001KT 17/16 A3004 RMK A01 T01700159  RH  093%=      5-min Rain = 0
KMC1 141340Z 14001KT 17/16 A3003 RMK A01 T01700159  RH  093%=      5-min Rain = 0
KMC1 141341Z 13001KT 17/16 A3004 RMK A01 T01700159  RH  093%=      5-min Rain = 0
KMC1 141342Z 13001KT 17/16 A3004 RMK A01 T01700160  RH  094%=      5-min Rain = 0
KMC1 141343Z 16002KT 17/16 A3004 RMK A01 T01700161  RH  094%=      5-min Rain = 0
KMC1 141344Z 17002KT 17/16 A3004 RMK A01 T01700159  RH  093%=      5-min Rain = 0
KMC1 141345Z 17002KT 17/16 A3004 RMK A01 T01700158  RH  093%=      5-min Rain = 0
KMC1 141346Z 20001KT 17/16 A3004 RMK A01 T01710160  RH  093%=      5-min Rain = 0.01
KMC1 141347Z 21001KT 17/16 A3004 RMK A01 T01710160  RH  093%=      5-min Rain = 0
KMC1 141348Z 22001KT 17/16 A3004 RMK A01 T01710160  RH  093%=      5-min Rain = 0
KMC1 141349Z 22002KT 17/16 A3004 RMK A01 T01710161  RH  094%=      5-min Rain = 0
KMC1 141350Z 22002KT 17/16 A3004 RMK A01 T01710160  RH  093%=      5-min Rain = 0
KMC1 141351Z 21002KT 17/16 A3004 RMK A01 T01710161  RH  094%=      5-min Rain = 0
KMC1 141352Z 21002KT 17/16 A3004 RMK A01 T01710161  RH  093%=      5-min Rain = 0
KMC1 141353Z 21001KT 17/16 A3005 RMK A01 T01710161  RH  093%=      5-min Rain = 0
KMC1 141354Z 22002KT 17/16 A3005 RMK A01 T01710160  RH  093%=      5-min Rain = 0
KMC1 141355Z 22002KT 17/16 A3005 RMK A01 T01710161  RH  094%=      5-min Rain = 0
KMC1 141356Z 22002KT 17/16 A3005 RMK A01 T01720162  RH  094%=      5-min Rain = 0
KMC1 141357Z 23002KT 17/16 A3005 RMK A01 T01720162  RH  094%=      5-min Rain = 0
KMC1 141358Z 22002KT 17/16 A3005 RMK A01 T01720162  RH  094%=      5-min Rain = 0
KMC1 141359Z 22002KT 17/16 A3005 RMK A01 T01720162  RH  094%=      5-min Rain = 0
KMC1 141400Z 22002KT 17/16 A3005 RMK A01 T01710162  RH  094%=      5-min Rain = 0
KMC1 141401Z 21002KT 17/16 A3005 RMK A01 T01720162  RH  094%=      5-min Rain = 0
KMC1 141402Z 21002KT 17/16 A3005 RMK A01 T01710162  RH  094%=      5-min Rain = 0
KMC1 141403Z 21002KT 17/16 A3005 RMK A01 T01710162  RH  094%=      5-min Rain = 0
KMC1 141404Z 21002KT 17/16 A3005 RMK A01 T01710162  RH  094%=      5-min Rain = 0
KMC1 141405Z 22002KT 17/16 A3005 RMK A01 T01710161  RH  094%=      5-min Rain = 0
KMC1 141406Z 22002KT 17/16 A3005 RMK A01 T01710162  RH  094%=      5-min Rain = 0
KMC1 141407Z 22002KT 17/16 A3005 RMK A01 T01720162  RH  094%=      5-min Rain = 0
KMC1 141408Z 23002KT 17/16 A3005 RMK A01 T01710162  RH  094%=      5-min Rain = 0
KMC1 141409Z 23002KT 17/16 A3005 RMK A01 T01710162  RH  094%=      5-min Rain = 0
KMC1 141410Z 22002KT 17/16 A3006 RMK A01 T01710163  RH  094%=      5-min Rain = 0
KMC1 141411Z 23002KT 17/16 A3006 RMK A01 T01710162  RH  094%=      5-min Rain = 0
KMC1 141412Z 23003KT 17/16 A3006 RMK A01 T01710162  RH  094%=      5-min Rain = 0
KMC1 141413Z 24002KT 17/16 A3006 RMK A01 T01710162  RH  094%=      5-min Rain = 0
KMC1 141414Z 23003KT 17/16 A3006 RMK A01 T01710162  RH  094%=      5-min Rain = 0
KMC1 141415Z 23003KT 17/16 A3006 RMK A01 T01710162  RH  095%=      5-min Rain = 0
KMC1 141416Z 23003KT 17/16 A3006 RMK A01 T01710162  RH  095%=      5-min Rain = 0
KMC1 141417Z 22004KT 17/16 A3006 RMK A01 T01710162  RH  094%=      5-min Rain = 0
KMC1 141418Z 21003KT 17/16 A3006 RMK A01 T01710162  RH  094%=      5-min Rain = 0
KMC1 141419Z 21004KT 17/16 A3006 RMK A01 T01710162  RH  094%=      5-min Rain = 0
KMC1 141420Z 21003KT 17/16 A3006 RMK A01 T01710161  RH  094%=      5-min Rain = 0
KMC1 141421Z 21004KT 17/16 A3006 RMK A01 T01710161  RH  094%=      5-min Rain = 0
KMC1 141422Z 20004KT 17/16 A3006 RMK A01 T01710161  RH  094%=      5-min Rain = 0
KMC1 141423Z 20004KT 17/16 A3006 RMK A01 T01710161  RH  094%=      5-min Rain = 0
KMC1 141424Z 21004KT 17/16 A3006 RMK A01 T01710161  RH  094%=      5-min Rain = 0
KMC1 141425Z 21004KT 17/16 A3006 RMK A01 T01710161  RH  094%=      5-min Rain = 0
KMC1 141426Z 21005KT 17/16 A3006 RMK A01 T01710161  RH  094%=      5-min Rain = 0
KMC1 141427Z 22005KT 17/16 A3007 RMK A01 T01710160  RH  093%=      5-min Rain = 0
KMC1 141428Z 21005KT 17/16 A3007 RMK A01 T01710160  RH  094%=      5-min Rain = 0
KMC1 141429Z 21005KT 17/16 A3007 RMK A01 T01710161  RH  094%=      5-min Rain = 0
KMC1 141430Z 21005KT 17/16 A3007 RMK A01 T01710160  RH  093%=      5-min Rain = 0
KMC1 141431Z 21005KT 17/16 A3007 RMK A01 T01710160  RH  093%=      5-min Rain = 0
KMC1 141432Z 20004KT 17/16 A3007 RMK A01 T01710160  RH  093%=      5-min Rain = 0
KMC1 141433Z 20004KT 17/16 A3007 RMK A01 T01710160  RH  093%=      5-min Rain = 0
KMC1 141434Z 21004KT 17/16 A3007 RMK A01 T01710161  RH  094%=      5-min Rain = 0
KMC1 141435Z 20005KT 17/16 A3007 RMK A01 T01710161  RH  093%=      5-min Rain = 0
KMC1 141436Z 21005KT 17/16 A3007 RMK A01 T01720161  RH  093%=      5-min Rain = 0
KMC1 141437Z 22005KT 17/16 A3007 RMK A01 T01720160  RH  093%=      5-min Rain = 0
KMC1 141438Z 22003KT 17/16 A3007 RMK A01 T01720161  RH  093%=      5-min Rain = 0
KMC1 141439Z 22004KT 17/16 A3007 RMK A01 T01720161  RH  093%=      5-min Rain = 0
KMC1 141440Z 23005KT 17/16 A3007 RMK A01 T01720160  RH  092%=      5-min Rain = 0
KMC1 141441Z 23004KT 17/16 A3007 RMK A01 T01730160  RH  092%=      5-min Rain = 0
KMC1 141442Z 23003KT 17/16 A3007 RMK A01 T01730161  RH  092%=      5-min Rain = 0
KMC1 141443Z 24002KT 17/16 A3007 RMK A01 T01730161  RH  093%=      5-min Rain = 0
KMC1 141444Z 24003KT 17/16 A3008 RMK A01 T01730161  RH  093%=      5-min Rain = 0
KMC1 141445Z 25004KT 17/16 A3008 RMK A01 T01730161  RH  093%=      5-min Rain = 0
KMC1 141446Z 26004KT 17/16 A3008 RMK A01 T01730162  RH  093%=      5-min Rain = 0
KMC1 141447Z 26004KT 17/16 A3008 RMK A01 T01730163  RH  093%=      5-min Rain = 0
KMC1 141448Z 25003KT 17/16 A3008 RMK A01 T01730162  RH  093%=      5-min Rain = 0
KMC1 141449Z 26002KT 17/16 A3008 RMK A01 T01740163  RH  093%=      5-min Rain = 0
KMC1 141450Z 25003KT 17/16 A3008 RMK A01 T01730163  RH  093%=      5-min Rain = 0
KMC1 141451Z 25002KT 17/16 A3008 RMK A01 T01730163  RH  093%=      5-min Rain = 0
KMC1 141452Z 24002KT 17/16 A3008 RMK A01 T01730163  RH  093%=      5-min Rain = 0
KMC1 141453Z 24002KT 17/16 A3008 RMK A01 T01730163  RH  094%=      5-min Rain = 0
KMC1 141454Z 24003KT 17/16 A3008 RMK A01 T01740164  RH  094%=      5-min Rain = 0
KMC1 141455Z 24003KT 17/17 A3008 RMK A01 T01740165  RH  094%=      5-min Rain = 0
KMC1 141456Z 25002KT 17/17 A3008 RMK A01 T01740165  RH  094%=      5-min Rain = 0
KMC1 141457Z 23003KT 17/17 A3008 RMK A01 T01740165  RH  094%=      5-min Rain = 0
KMC1 141458Z 22002KT 17/16 A3008 RMK A01 T01740164  RH  094%=      5-min Rain = 0
KMC1 141459Z 22003KT 17/16 A3008 RMK A01 T01740164  RH  094%=      5-min Rain = 0
KMC1 141500Z 21004KT 18/16 A3008 RMK A01 T01750164  RH  093%=      5-min Rain = 0
KMC1 141501Z 21004KT 17/16 A3008 RMK A01 T01740162  RH  092%=      5-min Rain = 0
KMC1 141502Z 20003KT 18/16 A3008 RMK A01 T01750162  RH  092%=      5-min Rain = 0
KMC1 141503Z 20003KT 18/16 A3008 RMK A01 T01750163  RH  093%=      5-min Rain = 0
KMC1 141504Z 20002KT 18/16 A3007 RMK A01 T01760163  RH  092%=      5-min Rain = 0
KMC1 141505Z 21003KT 18/16 A3008 RMK A01 T01760164  RH  092%=      5-min Rain = 0
KMC1 141506Z 22003KT 18/16 A3008 RMK A01 T01770164  RH  092%=      5-min Rain = 0
KMC1 141507Z 23002KT 18/16 A3008 RMK A01 T01770164  RH  092%=      5-min Rain = 0
KMC1 141508Z 24002KT 18/16 A3008 RMK A01 T01770164  RH  092%=      5-min Rain = 0
KMC1 141509Z 24002KT 18/17 A3008 RMK A01 T01780165  RH  092%=      5-min Rain = 0
KMC1 141510Z 24001KT 18/17 A3008 RMK A01 T01780165  RH  092%=      5-min Rain = 0
KMC1 141511Z 24003KT 18/17 A3008 RMK A01 T01790165  RH  091%=      5-min Rain = 0
KMC1 141512Z 22001KT 18/16 A3008 RMK A01 T01790163  RH  090%=      5-min Rain = 0
KMC1 141513Z 24001KT 18/17 A3008 RMK A01 T01800166  RH  092%=      5-min Rain = 0
KMC1 141514Z 22001KT 18/17 A3008 RMK A01 T01800166  RH  091%=      5-min Rain = 0
KMC1 141515Z 21001KT 18/16 A3008 RMK A01 T01800164  RH  090%=      5-min Rain = 0
KMC1 141516Z 21001KT 18/16 A3008 RMK A01 T01800164  RH  090%=      5-min Rain = 0
KMC1 141517Z 21003KT 18/16 A3008 RMK A01 T01800164  RH  090%=      5-min Rain = 0
KMC1 141518Z 21003KT 18/16 A3008 RMK A01 T01800163  RH  089%=      5-min Rain = 0
KMC1 141519Z 21003KT 18/16 A3008 RMK A01 T01800163  RH  089%=      5-min Rain = 0
KMC1 141520Z 21003KT 18/16 A3008 RMK A01 T01810164  RH  090%=      5-min Rain = 0
KMC1 141521Z 21003KT 18/17 A3008 RMK A01 T01810165  RH  090%=      5-min Rain = 0
KMC1 141522Z 21003KT 18/16 A3008 RMK A01 T01810164  RH  090%=      5-min Rain = 0
KMC1 141523Z 21002KT 18/16 A3008 RMK A01 T01810164  RH  090%=      5-min Rain = 0
KMC1 141524Z 21003KT 18/17 A3008 RMK A01 T01810165  RH  090%=      5-min Rain = 0
KMC1 141525Z 21003KT 18/16 A3008 RMK A01 T01810164  RH  090%=      5-min Rain = 0
KMC1 141526Z 21002KT 18/16 A3008 RMK A01 T01820164  RH  090%=      5-min Rain = 0
KMC1 141527Z 20002KT 18/17 A3008 RMK A01 T01820165  RH  090%=      5-min Rain = 0
KMC1 141528Z 21002KT 18/17 A3008 RMK A01 T01820167  RH  090%=      5-min Rain = 0
KMC1 141529Z 21003KT 18/17 A3008 RMK A01 T01820166  RH  090%=      5-min Rain = 0
KMC1 141530Z 22003KT 18/17 A3008 RMK A01 T01830165  RH  090%=      5-min Rain = 0
KMC1 141531Z 22003KT 18/17 A3008 RMK A01 T01830165  RH  090%=      5-min Rain = 0
KMC1 141532Z 23003KT 18/17 A3008 RMK A01 T01830165  RH  089%=      5-min Rain = 0
KMC1 141533Z 22003KT 18/17 A3008 RMK A01 T01830166  RH  090%=      5-min Rain = 0
KMC1 141534Z 24002KT 18/17 A3008 RMK A01 T01830166  RH  090%=      5-min Rain = 0
KMC1 141535Z 22003KT 18/17 A3008 RMK A01 T01830166  RH  090%=      5-min Rain = 0
KMC1 141536Z 23002KT 18/17 A3008 RMK A01 T01840165  RH  089%=      5-min Rain = 0
KMC1 141537Z 21002KT 18/17 A3008 RMK A01 T01840168  RH  090%=      5-min Rain = 0
KMC1 141538Z 21003KT 18/17 A3008 RMK A01 T01840168  RH  090%=      5-min Rain = 0
KMC1 141539Z 21003KT 19/17 A3008 RMK A01 T01850168  RH  090%=      5-min Rain = 0
KMC1 141540Z 21003KT 19/17 A3007 RMK A01 T01850166  RH  089%=      5-min Rain = 0
KMC1 141541Z 21002KT 19/17 A3007 RMK A01 T01850166  RH  089%=      5-min Rain = 0
KMC1 141542Z 23001KT 19/17 A3007 RMK A01 T01860168  RH  089%=      5-min Rain = 0
KMC1 141543Z 22002KT 19/17 A3007 RMK A01 T01870169  RH  089%=      5-min Rain = 0
KMC1 141544Z 21002KT 19/17 A3007 RMK A01 T01870167  RH  088%=      5-min Rain = 0
KMC1 141545Z 20002KT 19/17 A3007 RMK A01 T01880169  RH  089%=      5-min Rain = 0
KMC1 141546Z 19002KT 19/17 A3007 RMK A01 T01890168  RH  088%=      5-min Rain = 0
KMC1 141547Z 18003KT 19/17 A3007 RMK A01 T01900168  RH  087%=      5-min Rain = 0
KMC1 141548Z 20003KT 19/17 A3007 RMK A01 T01910167  RH  086%=      5-min Rain = 0
KMC1 141549Z 21003KT 19/17 A3007 RMK A01 T01920167  RH  086%=      5-min Rain = 0
KMC1 141550Z 21005KT 19/17 A3007 RMK A01 T01920166  RH  085%=      5-min Rain = 0
KMC1 141551Z 21003KT 19/17 A3007 RMK A01 T01930167  RH  085%=      5-min Rain = 0
KMC1 141552Z 23002KT 19/17 A3007 RMK A01 T01930167  RH  085%=      5-min Rain = 0
KMC1 141553Z 23001KT 19/17 A3007 RMK A01 T01940168  RH  085%=      5-min Rain = 0
KMC1 141554Z 21003KT 19/17 A3007 RMK A01 T01940167  RH  084%=      5-min Rain = 0
KMC1 141555Z 21003KT 20/17 A3007 RMK A01 T01950166  RH  083%=      5-min Rain = 0
KMC1 141556Z 22004KT 20/17 A3007 RMK A01 T01960168  RH  084%=      5-min Rain = 0
KMC1 141557Z 22003KT 20/17 A3007 RMK A01 T01960168  RH  084%=      5-min Rain = 0
KMC1 141558Z 21005KT 20/17 A3007 RMK A01 T01970168  RH  084%=      5-min Rain = 0
KMC1 141559Z 23005KT 20/17 A3007 RMK A01 T01970166  RH  082%=      5-min Rain = 0
KMC1 141600Z 21004KT 20/17 A3007 RMK A01 T01970166  RH  082%=      5-min Rain = 0
KMC1 141601Z 21005KT 20/16 A3007 RMK A01 T01970164  RH  081%=      5-min Rain = 0
KMC1 141602Z 21004KT 20/17 A3007 RMK A01 T01970166  RH  082%=      5-min Rain = 0
KMC1 141603Z 21005KT 20/17 A3007 RMK A01 T01970166  RH  082%=      5-min Rain = 0
KMC1 141604Z 21003KT 20/16 A3007 RMK A01 T01970164  RH  081%=      5-min Rain = 0
KMC1 141605Z 20003KT 20/17 A3007 RMK A01 T01970166  RH  082%=      5-min Rain = 0
KMC1 141606Z 21002KT 20/17 A3007 RMK A01 T01980168  RH  083%=      5-min Rain = 0
KMC1 141607Z 20003KT 20/17 A3007 RMK A01 T01980167  RH  082%=      5-min Rain = 0
KMC1 141608Z 19004KT 20/17 A3007 RMK A01 T01980165  RH  081%=      5-min Rain = 0
KMC1 141609Z 21003KT 20/17 A3007 RMK A01 T01980167  RH  082%=      5-min Rain = 0
KMC1 141610Z 21003KT 20/17 A3007 RMK A01 T01980167  RH  082%=      5-min Rain = 0
KMC1 141611Z 22001KT 20/17 A3007 RMK A01 T01990168  RH  082%=      5-min Rain = 0
KMC1 141612Z 21002KT 20/17 A3006 RMK A01 T01990169  RH  083%=      5-min Rain = 0
KMC1 141613Z 20002KT 20/17 A3006 RMK A01 T01990168  RH  082%=      5-min Rain = 0
KMC1 141614Z 20002KT 20/17 A3006 RMK A01 T01990169  RH  083%=      5-min Rain = 0
KMC1 141615Z 22002KT 20/17 A3006 RMK A01 T01990167  RH  082%=      5-min Rain = 0
KMC1 141616Z 21003KT 20/17 A3006 RMK A01 T01990168  RH  082%=      5-min Rain = 0
KMC1 141617Z 18002KT 20/17 A3006 RMK A01 T01990167  RH  082%=      5-min Rain = 0
KMC1 141618Z 18003KT 20/17 A3006 RMK A01 T01990168  RH  082%=      5-min Rain = 0
KMC1 141619Z 20002KT 20/17 A3007 RMK A01 T01990168  RH  082%=      5-min Rain = 0
KMC1 141620Z 19002KT 20/17 A3007 RMK A01 T01990170  RH  083%=      5-min Rain = 0
KMC1 141621Z 19002KT 20/17 A3007 RMK A01 T02000169  RH  083%=      5-min Rain = 0
KMC1 141622Z 20002KT 20/17 A3006 RMK A01 T02000170  RH  083%=      5-min Rain = 0
KMC1 141623Z 19001KT 20/17 A3006 RMK A01 T02000170  RH  083%=      5-min Rain = 0
KMC1 141624Z 19002KT 20/17 A3006 RMK A01 T02010171  RH  083%=      5-min Rain = 0
KMC1 141625Z 18003KT 20/17 A3006 RMK A01 T02010169  RH  082%=      5-min Rain = 0
KMC1 141626Z 18003KT 20/17 A3006 RMK A01 T02010168  RH  081%=      5-min Rain = 0
KMC1 141627Z 18003KT 20/17 A3006 RMK A01 T02010169  RH  081%=      5-min Rain = 0
KMC1 141628Z 19003KT 20/17 A3006 RMK A01 T02020169  RH  082%=      5-min Rain = 0
KMC1 141629Z 21003KT 20/17 A3006 RMK A01 T02020169  RH  082%=      5-min Rain = 0
KMC1 141630Z 21003KT 20/17 A3007 RMK A01 T02020168  RH  081%=      5-min Rain = 0
KMC1 141631Z 22002KT 20/17 A3007 RMK A01 T02010170  RH  083%=      5-min Rain = 0
KMC1 141632Z 21002KT 20/17 A3007 RMK A01 T02020173  RH  083%=      5-min Rain = 0
KMC1 141633Z 21003KT 20/17 A3006 RMK A01 T02020171  RH  082%=      5-min Rain = 0
KMC1 141634Z 20003KT 20/17 A3006 RMK A01 T02030171  RH  082%=      5-min Rain = 0
KMC1 141635Z 21002KT 20/17 A3006 RMK A01 T02030170  RH  081%=      5-min Rain = 0
KMC1 141636Z 23001KT 20/17 A3006 RMK A01 T02040170  RH  081%=      5-min Rain = 0
KMC1 141637Z 24003KT 20/17 A3006 RMK A01 T02040172  RH  082%=      5-min Rain = 0
KMC1 141638Z 24003KT 20/17 A3006 RMK A01 T02040170  RH  081%=      5-min Rain = 0
KMC1 141639Z 25004KT 21/17 A3006 RMK A01 T02050171  RH  081%=      5-min Rain = 0
KMC1 141640Z 25004KT 21/17 A3006 RMK A01 T02060171  RH  080%=      5-min Rain = 0
KMC1 141641Z 24003KT 21/17 A3007 RMK A01 T02050170  RH  080%=      5-min Rain = 0
KMC1 141642Z 23005KT 21/17 A3007 RMK A01 T02060170  RH  080%=      5-min Rain = 0
KMC1 141643Z 23004KT 21/17 A3007 RMK A01 T02060169  RH  079%=      5-min Rain = 0
KMC1 141644Z 25003KT 21/17 A3007 RMK A01 T02060171  RH  080%=      5-min Rain = 0
KMC1 141645Z 25003KT 21/17 A3007 RMK A01 T02060173  RH  081%=      5-min Rain = 0
KMC1 141646Z 24005KT 21/17 A3007 RMK A01 T02070171  RH  080%=      5-min Rain = 0
KMC1 141647Z 24004KT 21/17 A3006 RMK A01 T02070168  RH  078%=      5-min Rain = 0
KMC1 141648Z 26005KT 21/17 A3006 RMK A01 T02070168  RH  078%=      5-min Rain = 0
KMC1 141649Z 24005KT 21/17 A3006 RMK A01 T02070168  RH  078%=      5-min Rain = 0
KMC1 141650Z 24005KT 21/17 A3006 RMK A01 T02080170  RH  079%=      5-min Rain = 0
KMC1 141651Z 22003KT 21/17 A3006 RMK A01 T02080170  RH  079%=      5-min Rain = 0
KMC1 141652Z 21003KT 21/17 A3006 RMK A01 T02090171  RH  079%=      5-min Rain = 0
KMC1 141653Z 20003KT 21/17 A3006 RMK A01 T02100170  RH  078%=      5-min Rain = 0
KMC1 141654Z 18002KT 21/17 A3006 RMK A01 T02120172  RH  078%=      5-min Rain = 0
KMC1 141655Z 19004KT 21/17 A3005 RMK A01 T02130171  RH  077%=      5-min Rain = 0
KMC1 141656Z 17004KT 21/17 A3005 RMK A01 T02140171  RH  076%=      5-min Rain = 0
KMC1 141657Z 17003KT 22/17 A3005 RMK A01 T02150171  RH  076%=      5-min Rain = 0
KMC1 141658Z 16003KT 22/17 A3005 RMK A01 T02150173  RH  077%=      5-min Rain = 0
KMC1 141659Z 15005KT 22/17 A3004 RMK A01 T02160172  RH  076%=      5-min Rain = 0
KMC1 141700Z 15006KT 22/17 A3004 RMK A01 T02170174  RH  076%=      5-min Rain = 0
KMC1 141701Z 17005KT 22/17 A3004 RMK A01 T02170174  RH  076%=      5-min Rain = 0
KMC1 141702Z 18006KT 22/17 A3004 RMK A01 T02170174  RH  076%=      5-min Rain = 0
KMC1 141703Z 19005KT 22/18 A3004 RMK A01 T02180175  RH  076%=      5-min Rain = 0
KMC1 141704Z 19006KT 22/18 A3005 RMK A01 T02180175  RH  077%=      5-min Rain = 0
KMC1 141705Z 19005KT 22/17 A3005 RMK A01 T02180174  RH  076%=      5-min Rain = 0
KMC1 141706Z 20005KT 22/18 A3005 RMK A01 T02180175  RH  076%=      5-min Rain = 0
KMC1 141707Z 19004KT 22/17 A3005 RMK A01 T02180174  RH  076%=      5-min Rain = 0
KMC1 141708Z 20004KT 22/18 A3005 RMK A01 T02180176  RH  077%=      5-min Rain = 0
KMC1 141709Z 21004KT 22/18 A3005 RMK A01 T02190175  RH  076%=      5-min Rain = 0
KMC1 141710Z 19004KT 22/18 A3005 RMK A01 T02190177  RH  077%=      5-min Rain = 0
KMC1 141711Z 20007KT 22/17 A3004 RMK A01 T02200174  RH  075%=      5-min Rain = 0
KMC1 141712Z 19006KT 22/18 A3004 RMK A01 T02190175  RH  076%=      5-min Rain = 0
KMC1 141713Z 20006KT 22/18 A3004 RMK A01 T02190175  RH  076%=      5-min Rain = 0
KMC1 141714Z 19006KT 22/18 A3004 RMK A01 T02180175  RH  076%=      5-min Rain = 0
KMC1 141715Z 18005KT 22/18 A3004 RMK A01 T02180175  RH  077%=      5-min Rain = 0
KMC1 141716Z 19005KT 22/18 A3004 RMK A01 T02180175  RH  076%=      5-min Rain = 0
KMC1 141717Z 20005KT 22/18 A3004 RMK A01 T02180175  RH  076%=      5-min Rain = 0
KMC1 141718Z 20004KT 22/18 A3004 RMK A01 T02180175  RH  077%=      5-min Rain = 0
KMC1 141719Z 20003KT 22/18 A3004 RMK A01 T02180176  RH  077%=      5-min Rain = 0
KMC1 141720Z 20004KT 22/18 A3004 RMK A01 T02180176  RH  077%=      5-min Rain = 0
KMC1 141721Z 20004KT 22/18 A3004 RMK A01 T02180176  RH  077%=      5-min Rain = 0
KMC1 141722Z 19004KT 22/18 A3004 RMK A01 T02180176  RH  077%=      5-min Rain = 0
KMC1 141723Z 18005KT 22/18 A3004 RMK A01 T02180177  RH  077%=      5-min Rain = 0
KMC1 141724Z 19005KT 22/18 A3004 RMK A01 T02190177  RH  077%=      5-min Rain = 0
KMC1 141725Z 19005KT 22/18 A3004 RMK A01 T02190176  RH  077%=      5-min Rain = 0
KMC1 141726Z 19005KT 22/18 A3004 RMK A01 T02190176  RH  077%=      5-min Rain = 0
KMC1 141727Z 18004KT 22/18 A3003 RMK A01 T02190176  RH  077%=      5-min Rain = 0
KMC1 141728Z 18005KT 22/18 A3003 RMK A01 T02190177  RH  077%=      5-min Rain = 0
KMC1 141729Z 18005KT 22/18 A3003 RMK A01 T02200177  RH  077%=      5-min Rain = 0
KMC1 141730Z 18004KT 22/18 A3003 RMK A01 T02200178  RH  077%=      5-min Rain = 0
KMC1 141731Z 18005KT 22/18 A3003 RMK A01 T02210177  RH  076%=      5-min Rain = 0
KMC1 141732Z 19004KT 22/18 A3003 RMK A01 T02210178  RH  076%=      5-min Rain = 0
KMC1 141733Z 20005KT 22/18 A3003 RMK A01 T02220178  RH  076%=      5-min Rain = 0
KMC1 141734Z 19006KT 22/18 A3003 RMK A01 T02220178  RH  076%=      5-min Rain = 0
KMC1 141735Z 20005KT 22/18 A3003 RMK A01 T02230178  RH  076%=      5-min Rain = 0
KMC1 141736Z 20004KT 22/18 A3003 RMK A01 T02220178  RH  076%=      5-min Rain = 0
KMC1 141737Z 18003KT 22/18 A3003 RMK A01 T02230178  RH  076%=      5-min Rain = 0
KMC1 141738Z 19003KT 22/18 A3003 RMK A01 T02230180  RH  076%=      5-min Rain = 0
KMC1 141739Z 19004KT 23/18 A3003 RMK A01 T02250180  RH  076%=      5-min Rain = 0
KMC1 141740Z 18005KT 23/18 A3003 RMK A01 T02250179  RH  075%=      5-min Rain = 0
KMC1 141741Z 18004KT 23/18 A3003 RMK A01 T02260180  RH  075%=      5-min Rain = 0
KMC1 141742Z 20003KT 23/18 A3003 RMK A01 T02260180  RH  075%=      5-min Rain = 0
KMC1 141743Z 20002KT 23/18 A3003 RMK A01 T02270181  RH  075%=      5-min Rain = 0
KMC1 141744Z 19002KT 23/18 A3003 RMK A01 T02280183  RH  076%=      5-min Rain = 0
KMC1 141745Z 19003KT 23/18 A3003 RMK A01 T02300183  RH  075%=      5-min Rain = 0
KMC1 141746Z 21004KT 23/18 A3003 RMK A01 T02310182  RH  074%=      5-min Rain = 0
KMC1 141747Z 19003KT 23/18 A3003 RMK A01 T02320181  RH  073%=      5-min Rain = 0
KMC1 141748Z 19004KT 23/18 A3003 RMK A01 T02310181  RH  073%=      5-min Rain = 0
KMC1 141749Z 19003KT 23/18 A3003 RMK A01 T02320182  RH  073%=      5-min Rain = 0
KMC1 141750Z 18004KT 23/18 A3003 RMK A01 T02320183  RH  074%=      5-min Rain = 0
KMC1 141751Z 19003KT 23/18 A3003 RMK A01 T02340183  RH  073%=      5-min Rain = 0
KMC1 141752Z 19004KT 24/18 A3003 RMK A01 T02360183  RH  072%=      5-min Rain = 0
KMC1 141753Z 20003KT 24/19 A3003 RMK A01 T02380186  RH  073%=      5-min Rain = 0
KMC1 141754Z 20003KT 24/19 A3002 RMK A01 T02410187  RH  072%=      5-min Rain = 0
KMC1 141755Z 20005KT 24/19 A3002 RMK A01 T02440187  RH  070%=      5-min Rain = 0
KMC1 141756Z 18006KT 25/19 A3002 RMK A01 T02460185  RH  069%=      5-min Rain = 0
KMC1 141757Z 18007KT 25/19 A3002 RMK A01 T02460185  RH  069%=      5-min Rain = 0
KMC1 141758Z 21006KT 25/19 A3002 RMK A01 T02470185  RH  068%=      5-min Rain = 0
KMC1 141759Z 19005KT 25/19 A3002 RMK A01 T02500189  RH  069%=      5-min Rain = 0
KMC1 141800Z 20006KT 25/19 A3002 RMK A01 T02540190  RH  068%=      5-min Rain = 0
KMC1 141801Z 20004KT 26/19 A3002 RMK A01 T02560188  RH  066%=      5-min Rain = 0
KMC1 141802Z 21007KT 26/19 A3002 RMK A01 T02560188  RH  066%=      5-min Rain = 0
KMC1 141803Z 21005KT 26/19 A3002 RMK A01 T02560188  RH  066%=      5-min Rain = 0
KMC1 141804Z 19004KT 26/19 A3002 RMK A01 T02580188  RH  065%=      5-min Rain = 0
KMC1 141805Z 21006KT 26/19 A3002 RMK A01 T02590189  RH  065%=      5-min Rain = 0
KMC1 141806Z 21007KT 26/19 A3002 RMK A01 T02610187  RH  064%=      5-min Rain = 0
KMC1 141807Z 19009KT 26/19 A3002 RMK A01 T02620186  RH  063%=      5-min Rain = 0
KMC1 141808Z 20005KT 26/19 A3002 RMK A01 T02630186  RH  063%=      5-min Rain = 0
KMC1 141809Z 19008KT 26/19 A3002 RMK A01 T02640185  RH  062%=      5-min Rain = 0
KMC1 141810Z 19007KT 26/18 A3002 RMK A01 T02610182  RH  062%=      5-min Rain = 0
KMC1 141811Z 19007KT 26/18 A3002 RMK A01 T02580183  RH  063%=      5-min Rain = 0
KMC1 141812Z 21006KT 26/18 A3002 RMK A01 T02570182  RH  063%=      5-min Rain = 0
KMC1 141813Z 20008G14KT 26/18 A3002 RMK A01 T02570181  RH  063%=      5-min Rain = 0
KMC1 141814Z 21007KT 26/18 A3002 RMK A01 T02570180  RH  062%=      5-min Rain = 0
KMC1 141815Z 20008KT 26/18 A3002 RMK A01 T02570180  RH  063%=      5-min Rain = 0
KMC1 141816Z 20008KT 26/18 A3002 RMK A01 T02580180  RH  062%=      5-min Rain = 0
KMC1 141817Z 21009KT 26/18 A3002 RMK A01 T02600176  RH  060%=      5-min Rain = 0
KMC1 141818Z 21009KT 26/18 A3001 RMK A01 T02600177  RH  060%=      5-min Rain = 0
KMC1 141819Z 21010KT 26/18 A3001 RMK A01 T02600176  RH  060%=      5-min Rain = 0
KMC1 141820Z 20008KT 26/18 A3001 RMK A01 T02590176  RH  060%=      5-min Rain = 0
KMC1 141821Z 22007KT 26/18 A3001 RMK A01 T02590178  RH  061%=      5-min Rain = 0
KMC1 141822Z 18007KT 26/18 A3001 RMK A01 T02590179  RH  061%=      5-min Rain = 0
KMC1 141823Z 19009KT 26/18 A3001 RMK A01 T02600177  RH  060%=      5-min Rain = 0
KMC1 141824Z 19007KT 26/18 A3001 RMK A01 T02600176  RH  060%=      5-min Rain = 0
KMC1 141825Z 18007KT 26/18 A3001 RMK A01 T02600176  RH  060%=      5-min Rain = 0
KMC1 141826Z 18007KT 26/18 A3001 RMK A01 T02630177  RH  059%=      5-min Rain = 0
KMC1 141827Z 17007KT 27/18 A3001 RMK A01 T02660177  RH  058%=      5-min Rain = 0
KMC1 141828Z 19006KT 27/18 A3001 RMK A01 T02670177  RH  058%=      5-min Rain = 0
KMC1 141829Z 20007KT 27/18 A30 RMK A01 T02670177  RH  058%=      5-min Rain = 0
KMC1 141830Z 21010KT 27/17 A30 RMK A01 T02690173  RH  056%=      5-min Rain = 0
KMC1 141831Z 18007KT 27/17 A30 RMK A01 T02680174  RH  056%=      5-min Rain = 0
KMC1 141832Z 20008KT 27/17 A30 RMK A01 T02690172  RH  056%=      5-min Rain = 0
KMC1 141833Z 20007KT 27/17 A30 RMK A01 T02690171  RH  055%=      5-min Rain = 0
KMC1 141834Z 18004KT 27/17 A30 RMK A01 T02670173  RH  057%=      5-min Rain = 0
KMC1 141835Z 20006KT 27/18 A30 RMK A01 T02690175  RH  056%=      5-min Rain = 0
KMC1 141836Z 19007KT 27/17 A30 RMK A01 T02710174  RH  055%=      5-min Rain = 0
KMC1 141837Z 19006KT 27/17 A30 RMK A01 T02710173  RH  055%=      5-min Rain = 0
KMC1 141838Z 19006KT 27/17 A30 RMK A01 T02700174  RH  056%=      5-min Rain = 0
KMC1 141839Z 21008KT 27/17 A30 RMK A01 T02710174  RH  055%=      5-min Rain = 0
KMC1 141840Z 22008KT 27/17 A30 RMK A01 T02710174  RH  055%=      5-min Rain = 0
KMC1 141841Z 22006KT 27/17 A30 RMK A01 T02700171  RH  055%=      5-min Rain = 0
KMC1 141842Z 21006KT 27/17 A30 RMK A01 T02700172  RH  055%=      5-min Rain = 0
KMC1 141843Z 20009KT 27/17 A30 RMK A01 T02710173  RH  055%=      5-min Rain = 0
KMC1 141844Z 20009KT 27/17 A30 RMK A01 T02720171  RH  054%=      5-min Rain = 0
KMC1 141845Z 22007KT 27/17 A30 RMK A01 T02740173  RH  054%=      5-min Rain = 0
KMC1 141846Z 19007KT 28/17 A30 RMK A01 T02750172  RH  053%=      5-min Rain = 0
KMC1 141847Z 17007KT 28/17 A30 RMK A01 T02760172  RH  053%=      5-min Rain = 0
KMC1 141848Z 18007KT 28/17 A30 RMK A01 T02760171  RH  053%=      5-min Rain = 0
KMC1 141849Z 19007KT 28/17 A2999 RMK A01 T02750172  RH  053%=      5-min Rain = 0
KMC1 141850Z 19006KT 28/17 A2999 RMK A01 T02750173  RH  054%=      5-min Rain = 0
KMC1 141851Z 19006KT 28/17 A2999 RMK A01 T02790171  RH  052%=      5-min Rain = 0
KMC1 141852Z 19006KT 28/17 A2999 RMK A01 T02800168  RH  051%=      5-min Rain = 0
KMC1 141853Z 22005KT 28/17 A2999 RMK A01 T02800170  RH  051%=      5-min Rain = 0
KMC1 141854Z 24006KT 28/17 A2999 RMK A01 T02790170  RH  051%=      5-min Rain = 0
KMC1 141855Z 22005KT 28/17 A2999 RMK A01 T02790171  RH  052%=      5-min Rain = 0
KMC1 141856Z 24007KT 28/17 A2999 RMK A01 T02800173  RH  052%=      5-min Rain = 0
KMC1 141857Z 23005KT 28/18 A2999 RMK A01 T02840176  RH  052%=      5-min Rain = 0
KMC1 141858Z 24006KT 29/17 A2999 RMK A01 T02870174  RH  050%=      5-min Rain = 0
KMC1 141859Z 21005KT 29/17 A2999 RMK A01 T02870174  RH  050%=      5-min Rain = 0
KMC1 141900Z 21005G13KT 29/17 A2999 RMK A01 T02870174  RH  050%=      5-min Rain = 0
KMC1 141901Z 22009KT 29/17 A2999 RMK A01 T02870173  RH  050%=      5-min Rain = 0
KMC1 141902Z 21007KT 29/17 A2999 RMK A01 T02880170  RH  049%=      5-min Rain = 0
KMC1 141903Z 23004KT 29/17 A2999 RMK A01 T02870172  RH  050%=      5-min Rain = 0
KMC1 141904Z 22007KT 29/17 A2999 RMK A01 T02870171  RH  050%=      5-min Rain = 0
KMC1 141905Z 21006KT 29/17 A2999 RMK A01 T02860170  RH  049%=      5-min Rain = 0
KMC1 141906Z 20006KT 29/17 A2999 RMK A01 T02860170  RH  050%=      5-min Rain = 0
KMC1 141907Z 23005KT 29/17 A2999 RMK A01 T02850171  RH  050%=      5-min Rain = 0
KMC1 141908Z 22008KT 29/17 A2999 RMK A01 T02860169  RH  049%=      5-min Rain = 0
KMC1 141909Z 23007KT 29/17 A2999 RMK A01 T02850166  RH  048%=      5-min Rain = 0
KMC1 141910Z 23008KT 28/17 A2999 RMK A01 T02840168  RH  049%=      5-min Rain = 0
KMC1 141911Z 23006KT 28/17 A2999 RMK A01 T02840167  RH  049%=      5-min Rain = 0
KMC1 141912Z 21005G10KT 28/17 A2999 RMK A01 T02830169  RH  050%=      5-min Rain = 0
KMC1 141913Z 21008KT 28/17 A2999 RMK A01 T02840166  RH  049%=      5-min Rain = 0
KMC1 141914Z 20007KT 28/17 A2998 RMK A01 T02830167  RH  049%=      5-min Rain = 0
KMC1 141915Z 21006KT 28/17 A2998 RMK A01 T02840168  RH  049%=      5-min Rain = 0
KMC1 141916Z 22007KT 29/17 A2998 RMK A01 T02870170  RH  049%=      5-min Rain = 0
KMC1 141917Z 22005KT 29/17 A2998 RMK A01 T02870169  RH  049%=      5-min Rain = 0
KMC1 141918Z 21006KT 29/17 A2998 RMK A01 T02880169  RH  048%=      5-min Rain = 0
KMC1 141919Z 22004KT 29/17 A2998 RMK A01 T02860169  RH  049%=      5-min Rain = 0
KMC1 141920Z 18007KT 29/17 A2998 RMK A01 T02860170  RH  049%=      5-min Rain = 0
KMC1 141921Z 18007KT 29/17 A2998 RMK A01 T02860169  RH  049%=      5-min Rain = 0
KMC1 141922Z 18010KT 29/17 A2998 RMK A01 T02860169  RH  049%=      5-min Rain = 0
KMC1 141923Z 18009KT 28/17 A2998 RMK A01 T02840168  RH  049%=      5-min Rain = 0
KMC1 141924Z 19007KT 28/17 A2998 RMK A01 T02810169  RH  050%=      5-min Rain = 0
KMC1 141925Z 20008KT 28/17 A2998 RMK A01 T02810169  RH  051%=      5-min Rain = 0
KMC1 141926Z 20007KT 28/17 A2998 RMK A01 T02800168  RH  050%=      5-min Rain = 0
KMC1 141927Z 20006KT 28/17 A2998 RMK A01 T02790168  RH  051%=      5-min Rain = 0
KMC1 141928Z 20006KT 28/17 A2998 RMK A01 T02780167  RH  051%=      5-min Rain = 0
KMC1 141929Z 19007KT 28/17 A2997 RMK A01 T02780167  RH  051%=      5-min Rain = 0
KMC1 141930Z 18007KT 28/17 A2997 RMK A01 T02780166  RH  050%=      5-min Rain = 0
KMC1 141931Z 19008KT 28/17 A2997 RMK A01 T02770166  RH  051%=      5-min Rain = 0
KMC1 141932Z 20007KT 28/17 A2997 RMK A01 T02770165  RH  050%=      5-min Rain = 0
KMC1 141933Z 23004KT 28/17 A2997 RMK A01 T02780167  RH  051%=      5-min Rain = 0
KMC1 141934Z 23005KT 28/17 A2997 RMK A01 T02780167  RH  051%=      5-min Rain = 0
KMC1 141935Z 25007KT 28/17 A2997 RMK A01 T02780166  RH  051%=      5-min Rain = 0
KMC1 141936Z 24006KT 28/17 A2997 RMK A01 T02780167  RH  051%=      5-min Rain = 0
KMC1 141937Z 22007KT 28/17 A2997 RMK A01 T02780166  RH  050%=      5-min Rain = 0
KMC1 141938Z 22004KT 28/17 A2997 RMK A01 T02780167  RH  051%=      5-min Rain = 0
KMC1 141939Z 21005KT 28/17 A2997 RMK A01 T02780168  RH  051%=      5-min Rain = 0
KMC1 141940Z 21005KT 28/17 A2997 RMK A01 T02780168  RH  051%=      5-min Rain = 0
KMC1 141941Z 22007KT 28/17 A2997 RMK A01 T02790168  RH  051%=      5-min Rain = 0
KMC1 141942Z 21006KT 28/17 A2997 RMK A01 T02790168  RH  051%=      5-min Rain = 0
KMC1 141943Z 20008KT 28/17 A2997 RMK A01 T02790169  RH  051%=      5-min Rain = 0
KMC1 141944Z 20007KT 28/17 A2997 RMK A01 T02780168  RH  051%=      5-min Rain = 0
KMC1 141945Z 21004KT 28/17 A2997 RMK A01 T02770168  RH  051%=      5-min Rain = 0
KMC1 141946Z 18004KT 28/17 A2997 RMK A01 T02780169  RH  052%=      5-min Rain = 0
KMC1 141947Z 22004KT 28/17 A2997 RMK A01 T02770168  RH  051%=      5-min Rain = 0
KMC1 141948Z 21004KT 28/17 A2997 RMK A01 T02770167  RH  051%=      5-min Rain = 0
KMC1 141949Z 22003KT 28/17 A2997 RMK A01 T02770168  RH  052%=      5-min Rain = 0
KMC1 141950Z 18003KT 28/17 A2997 RMK A01 T02770168  RH  052%=      5-min Rain = 0
KMC1 141951Z 21003KT 28/17 A2997 RMK A01 T02770168  RH  051%=      5-min Rain = 0
KMC1 141952Z 19006KT 28/17 A2997 RMK A01 T02780169  RH  051%=      5-min Rain = 0
KMC1 141953Z 21004KT 28/17 A2997 RMK A01 T02790167  RH  050%=      5-min Rain = 0
KMC1 141954Z 22007KT 28/17 A2997 RMK A01 T02790168  RH  051%=      5-min Rain = 0
KMC1 141955Z 21005KT 28/17 A2997 RMK A01 T02790167  RH  051%=      5-min Rain = 0
KMC1 141956Z 19004KT 28/17 A2997 RMK A01 T02780168  RH  051%=      5-min Rain = 0
KMC1 141957Z 20004KT 28/17 A2997 RMK A01 T02780168  RH  051%=      5-min Rain = 0
KMC1 141958Z 20005KT 28/17 A2997 RMK A01 T02780167  RH  051%=      5-min Rain = 0
KMC1 141959Z 22002KT 28/17 A2996 RMK A01 T02790167  RH  051%=      5-min Rain = 0
KMC1 142000Z 22002KT 28/17 A2996 RMK A01 T02780169  RH  051%=      5-min Rain = 0
KMC1 142001Z 21004KT 28/17 A2996 RMK A01 T02790169  RH  051%=      5-min Rain = 0
KMC1 142002Z 21006KT 28/17 A2996 RMK A01 T02800169  RH  051%=      5-min Rain = 0
KMC1 142003Z 19006KT 28/17 A2996 RMK A01 T02810169  RH  051%=      5-min Rain = 0
KMC1 142004Z 20006KT 28/17 A2996 RMK A01 T02810168  RH  050%=      5-min Rain = 0
KMC1 142005Z 21006KT 28/17 A2996 RMK A01 T02810168  RH  050%=      5-min Rain = 0
KMC1 142006Z 18003KT 28/17 A2996 RMK A01 T02810169  RH  050%=      5-min Rain = 0
KMC1 142007Z 19005KT 28/17 A2996 RMK A01 T02810170  RH  051%=      5-min Rain = 0
KMC1 142008Z 21004KT 28/17 A2996 RMK A01 T02820168  RH  050%=      5-min Rain = 0
KMC1 142009Z 22003KT 28/17 A2996 RMK A01 T02820169  RH  050%=      5-min Rain = 0
KMC1 142010Z 21003KT 28/17 A2996 RMK A01 T02830170  RH  051%=      5-min Rain = 0
KMC1 142011Z 25004KT 28/17 A2996 RMK A01 T02830169  RH  050%=      5-min Rain = 0
KMC1 142012Z 24004KT 28/17 A2996 RMK A01 T02830169  RH  050%=      5-min Rain = 0
KMC1 142013Z 23003KT 28/17 A2996 RMK A01 T02830170  RH  050%=      5-min Rain = 0
KMC1 142014Z 22004KT 28/17 A2996 RMK A01 T02840169  RH  050%=      5-min Rain = 0
KMC1 142015Z 21004KT 28/17 A2996 RMK A01 T02830169  RH  050%=      5-min Rain = 0
KMC1 142016Z 22005KT 28/17 A2996 RMK A01 T02830169  RH  050%=      5-min Rain = 0
KMC1 142017Z 22005KT 28/17 A2996 RMK A01 T02830168  RH  049%=      5-min Rain = 0
KMC1 142018Z 21005KT 28/17 A2996 RMK A01 T02830168  RH  050%=      5-min Rain = 0
KMC1 142019Z 21004KT 28/17 A2996 RMK A01 T02820168  RH  050%=      5-min Rain = 0
KMC1 142020Z 22004KT 28/17 A2996 RMK A01 T02820167  RH  050%=      5-min Rain = 0
KMC1 142021Z 21004KT 28/17 A2996 RMK A01 T02820167  RH  050%=      5-min Rain = 0
KMC1 142022Z 22006KT 28/17 A2996 RMK A01 T02810167  RH  050%=      5-min Rain = 0
KMC1 142023Z 21006KT 28/17 A2996 RMK A01 T02800166  RH  050%=      5-min Rain = 0
KMC1 142024Z 20004KT 28/17 A2996 RMK A01 T02800166  RH  050%=      5-min Rain = 0
KMC1 142025Z 21004KT 28/17 A2995 RMK A01 T02790167  RH  051%=      5-min Rain = 0
KMC1 142026Z 22004KT 28/17 A2995 RMK A01 T02790168  RH  051%=      5-min Rain = 0
KMC1 142027Z 19004KT 28/17 A2995 RMK A01 T02790169  RH  051%=      5-min Rain = 0
KMC1 142028Z 21005KT 28/17 A2995 RMK A01 T02790168  RH  051%=      5-min Rain = 0
KMC1 142029Z 22005KT 28/17 A2996 RMK A01 T02790169  RH  051%=      5-min Rain = 0
KMC1 142030Z 23004KT 28/17 A2996 RMK A01 T02790170  RH  051%=      5-min Rain = 0
KMC1 142031Z 23004KT 28/17 A2996 RMK A01 T02790171  RH  052%=      5-min Rain = 0
KMC1 142032Z 23003KT 28/17 A2996 RMK A01 T02790171  RH  052%=      5-min Rain = 0
KMC1 142033Z 21003KT 28/17 A2996 RMK A01 T02800172  RH  052%=      5-min Rain = 0
KMC1 142034Z 23004KT 28/17 A2996 RMK A01 T02800169  RH  051%=      5-min Rain = 0
KMC1 142035Z 21003KT 28/17 A2996 RMK A01 T02800170  RH  051%=      5-min Rain = 0
KMC1 142036Z 22003KT 28/17 A2996 RMK A01 T02800171  RH  052%=      5-min Rain = 0
KMC1 142037Z 22003KT 28/17 A2996 RMK A01 T02790170  RH  051%=      5-min Rain = 0
KMC1 142038Z 21004KT 28/17 A2996 RMK A01 T02800171  RH  052%=      5-min Rain = 0
KMC1 142039Z 19004KT 28/17 A2996 RMK A01 T02800169  RH  051%=      5-min Rain = 0
KMC1 142040Z 21003KT 28/17 A2996 RMK A01 T02800169  RH  051%=      5-min Rain = 0
KMC1 142041Z 19004KT 28/17 A2996 RMK A01 T02800169  RH  051%=      5-min Rain = 0
KMC1 142042Z 20006KT 28/17 A2996 RMK A01 T02800169  RH  051%=      5-min Rain = 0
KMC1 142043Z 20006KT 28/17 A2996 RMK A01 T02790169  RH  051%=      5-min Rain = 0
KMC1 142044Z 21005KT 28/17 A2996 RMK A01 T02800170  RH  051%=      5-min Rain = 0
KMC1 142045Z 21004KT 28/17 A2996 RMK A01 T02800170  RH  051%=      5-min Rain = 0
KMC1 142046Z 22005KT 28/17 A2995 RMK A01 T02800170  RH  051%=      5-min Rain = 0
KMC1 142047Z 22004KT 28/17 A2995 RMK A01 T02800169  RH  051%=      5-min Rain = 0
KMC1 142048Z 21003KT 28/17 A2995 RMK A01 T02790170  RH  051%=      5-min Rain = 0
KMC1 142049Z 20004KT 28/17 A2995 RMK A01 T02800168  RH  051%=      5-min Rain = 0
KMC1 142050Z 17005KT 28/17 A2995 RMK A01 T02800169  RH  051%=      5-min Rain = 0
KMC1 142051Z 18006KT 28/17 A2995 RMK A01 T02800168  RH  051%=      5-min Rain = 0
KMC1 142052Z 19005KT 28/17 A2995 RMK A01 T02800168  RH  050%=      5-min Rain = 0
KMC1 142053Z 19003KT 28/17 A2995 RMK A01 T02800169  RH  051%=      5-min Rain = 0
KMC1 142054Z 20003KT 28/17 A2995 RMK A01 T02800169  RH  051%=      5-min Rain = 0
KMC1 142055Z 20005KT 28/17 A2995 RMK A01 T02800169  RH  051%=      5-min Rain = 0
KMC1 142056Z 20005KT 28/17 A2995 RMK A01 T02800170  RH  051%=      5-min Rain = 0
KMC1 142057Z 20003KT 28/17 A2995 RMK A01 T02800171  RH  051%=      5-min Rain = 0
KMC1 142058Z 20005KT 28/17 A2995 RMK A01 T02800170  RH  051%=      5-min Rain = 0
KMC1 142059Z 20004KT 28/17 A2995 RMK A01 T02790171  RH  052%=      5-min Rain = 0
KMC1 142100Z 21004KT 28/17 A2995 RMK A01 T02790171  RH  052%=      5-min Rain = 0
KMC1 142101Z 20006KT 28/17 A2995 RMK A01 T02790170  RH  052%=      5-min Rain = 0
KMC1 142102Z 21005KT 28/17 A2995 RMK A01 T02780169  RH  052%=      5-min Rain = 0
KMC1 142103Z 20004KT 28/17 A2995 RMK A01 T02780169  RH  052%=      5-min Rain = 0
KMC1 142104Z 19005KT 28/17 A2995 RMK A01 T02770170  RH  052%=      5-min Rain = 0
KMC1 142105Z 17005KT 28/17 A2995 RMK A01 T02770169  RH  052%=      5-min Rain = 0
KMC1 142106Z 18005KT 28/17 A2995 RMK A01 T02770169  RH  052%=      5-min Rain = 0
KMC1 142107Z 18005KT 28/17 A2995 RMK A01 T02770168  RH  051%=      5-min Rain = 0
KMC1 142108Z 18005KT 28/17 A2995 RMK A01 T02770168  RH  051%=      5-min Rain = 0
KMC1 142109Z 18005KT 28/17 A2995 RMK A01 T02770169  RH  052%=      5-min Rain = 0
KMC1 142110Z 17005KT 28/17 A2995 RMK A01 T02770169  RH  052%=      5-min Rain = 0
KMC1 142111Z 18004KT 28/17 A2995 RMK A01 T02780170  RH  052%=      5-min Rain = 0
KMC1 142112Z 19004KT 28/17 A2995 RMK A01 T02780170  RH  052%=      5-min Rain = 0
KMC1 142113Z 21004KT 28/17 A2995 RMK A01 T02780172  RH  052%=      5-min Rain = 0
KMC1 142114Z 20003KT 28/17 A2995 RMK A01 T02790172  RH  052%=      5-min Rain = 0
KMC1 142115Z 20005KT 28/17 A2995 RMK A01 T02790172  RH  052%=      5-min Rain = 0
KMC1 142116Z 19005KT 28/17 A2995 RMK A01 T02800169  RH  051%=      5-min Rain = 0
KMC1 142117Z 19005KT 28/17 A2995 RMK A01 T02790169  RH  051%=      5-min Rain = 0
KMC1 142118Z 19005KT 28/17 A2995 RMK A01 T02790170  RH  052%=      5-min Rain = 0
KMC1 142119Z 18004KT 28/17 A2995 RMK A01 T02790170  RH  051%=      5-min Rain = 0
KMC1 142120Z 20003KT 28/17 A2995 RMK A01 T02790171  RH  052%=      5-min Rain = 0
KMC1 142121Z 20002KT 28/17 A2995 RMK A01 T02800172  RH  052%=      5-min Rain = 0
KMC1 142122Z 19003KT 28/17 A2995 RMK A01 T02800171  RH  051%=      5-min Rain = 0
KMC1 142123Z 19003KT 28/17 A2995 RMK A01 T02800171  RH  051%=      5-min Rain = 0
KMC1 142124Z 18004KT 28/17 A2995 RMK A01 T02800170  RH  051%=      5-min Rain = 0
KMC1 142125Z 20005KT 28/17 A2995 RMK A01 T02790169  RH  051%=      5-min Rain = 0
KMC1 142126Z 18004KT 28/17 A2995 RMK A01 T02790170  RH  051%=      5-min Rain = 0
KMC1 142127Z 18006KT 28/17 A2995 RMK A01 T02790170  RH  052%=      5-min Rain = 0
KMC1 142128Z 19005KT 28/17 A2995 RMK A01 T02790169  RH  051%=      5-min Rain = 0
KMC1 142129Z 19005KT 28/17 A2995 RMK A01 T02780169  RH  051%=      5-min Rain = 0
KMC1 142130Z 19006KT 28/17 A2995 RMK A01 T02780169  RH  051%=      5-min Rain = 0
KMC1 142131Z 19005KT 28/17 A2995 RMK A01 T02780168  RH  051%=      5-min Rain = 0
KMC1 142132Z 20005KT 28/17 A2995 RMK A01 T02770169  RH  052%=      5-min Rain = 0
KMC1 142133Z 21006KT 28/17 A2995 RMK A01 T02770169  RH  052%=      5-min Rain = 0
KMC1 142134Z 20005KT 28/17 A2995 RMK A01 T02770169  RH  052%=      5-min Rain = 0
KMC1 142135Z 21006KT 28/17 A2995 RMK A01 T02770168  RH  052%=      5-min Rain = 0
KMC1 142136Z 20006KT 28/17 A2995 RMK A01 T02770168  RH  052%=      5-min Rain = 0
KMC1 142137Z 20004KT 28/17 A2995 RMK A01 T02760168  RH  052%=      5-min Rain = 0
KMC1 142138Z 19004KT 28/17 A2995 RMK A01 T02760168  RH  052%=      5-min Rain = 0
KMC1 142139Z 20006KT 28/17 A2995 RMK A01 T02770168  RH  052%=      5-min Rain = 0
KMC1 142140Z 20004KT 28/17 A2995 RMK A01 T02770168  RH  051%=      5-min Rain = 0
KMC1 142141Z 20005KT 28/17 A2995 RMK A01 T02780169  RH  051%=      5-min Rain = 0
KMC1 142142Z 21006KT 28/17 A2995 RMK A01 T02780168  RH  051%=      5-min Rain = 0
KMC1 142143Z 20005KT 28/17 A2995 RMK A01 T02780169  RH  051%=      5-min Rain = 0
KMC1 142144Z 22003KT 28/17 A2995 RMK A01 T02780169  RH  051%=      5-min Rain = 0
KMC1 142145Z 21004KT 28/17 A2995 RMK A01 T02780170  RH  052%=      5-min Rain = 0
KMC1 142146Z 21003KT 28/17 A2995 RMK A01 T02780168  RH  051%=      5-min Rain = 0
KMC1 142147Z 21002KT 28/17 A2995 RMK A01 T02790169  RH  051%=      5-min Rain = 0
KMC1 142148Z 22002KT 28/17 A2995 RMK A01 T02790169  RH  051%=      5-min Rain = 0
KMC1 142149Z 20002KT 28/17 A2995 RMK A01 T02800170  RH  051%=      5-min Rain = 0
KMC1 142150Z 21002KT 28/17 A2995 RMK A01 T02810170  RH  051%=      5-min Rain = 0
KMC1 142151Z 20003KT 28/17 A2995 RMK A01 T02820170  RH  051%=      5-min Rain = 0
KMC1 142152Z 22003KT 28/17 A2995 RMK A01 T02820171  RH  051%=      5-min Rain = 0
KMC1 142153Z 21004KT 28/17 A2995 RMK A01 T02820168  RH  050%=      5-min Rain = 0
KMC1 142154Z 21005KT 28/17 A2995 RMK A01 T02820168  RH  050%=      5-min Rain = 0
KMC1 142155Z 20005KT 28/17 A2995 RMK A01 T02820168  RH  050%=      5-min Rain = 0
KMC1 142156Z 21003KT 28/17 A2995 RMK A01 T02820168  RH  050%=      5-min Rain = 0
KMC1 142157Z 22003KT 28/17 A2995 RMK A01 T02820170  RH  051%=      5-min Rain = 0
KMC1 142158Z 21002KT 28/17 A2995 RMK A01 T02820169  RH  050%=      5-min Rain = 0
KMC1 142159Z 22003KT 28/17 A2995 RMK A01 T02820168  RH  050%=      5-min Rain = 0
KMC1 142200Z 20003KT 28/17 A2995 RMK A01 T02830169  RH  050%=      5-min Rain = 0
KMC1 142201Z 21003KT 28/17 A2995 RMK A01 T02830169  RH  050%=      5-min Rain = 0
KMC1 142202Z 21003KT 28/17 A2995 RMK A01 T02840170  RH  050%=      5-min Rain = 0
KMC1 142203Z 19003KT 28/17 A2995 RMK A01 T02840168  RH  049%=      5-min Rain = 0
KMC1 142204Z 20002KT 29/17 A2995 RMK A01 T02850168  RH  049%=      5-min Rain = 0
KMC1 142205Z 21003KT 29/17 A2995 RMK A01 T02850169  RH  050%=      5-min Rain = 0
KMC1 142206Z 21002KT 29/17 A2995 RMK A01 T02860169  RH  049%=      5-min Rain = 0
KMC1 142207Z 25003KT 29/17 A2995 RMK A01 T02850168  RH  049%=      5-min Rain = 0
KMC1 142208Z 20003KT 29/17 A2995 RMK A01 T02850169  RH  050%=      5-min Rain = 0
KMC1 142209Z 22004KT 29/17 A2995 RMK A01 T02850169  RH  049%=      5-min Rain = 0
KMC1 142210Z 22006KT 29/17 A2995 RMK A01 T02850168  RH  049%=      5-min Rain = 0
KMC1 142211Z 23004KT 29/17 A2995 RMK A01 T02850167  RH  049%=      5-min Rain = 0
KMC1 142212Z 23004KT 29/17 A2995 RMK A01 T02850167  RH  049%=      5-min Rain = 0
KMC1 142213Z 22004KT 28/17 A2995 RMK A01 T02840167  RH  049%=      5-min Rain = 0
KMC1 142214Z 21004KT 28/17 A2995 RMK A01 T02830167  RH  049%=      5-min Rain = 0
KMC1 142215Z 20005KT 28/17 A2995 RMK A01 T02830168  RH  049%=      5-min Rain = 0
KMC1 142216Z 21005KT 28/17 A2995 RMK A01 T02830166  RH  049%=      5-min Rain = 0
KMC1 142217Z 21006KT 28/17 A2995 RMK A01 T02830165  RH  049%=      5-min Rain = 0
KMC1 142218Z 19005KT 28/17 A2995 RMK A01 T02820165  RH  049%=      5-min Rain = 0
KMC1 142219Z 19005KT 28/17 A2995 RMK A01 T02810165  RH  049%=      5-min Rain = 0
KMC1 142220Z 20005KT 28/17 A2995 RMK A01 T02810165  RH  049%=      5-min Rain = 0
KMC1 142221Z 18004KT 28/17 A2995 RMK A01 T02810165  RH  049%=      5-min Rain = 0
KMC1 142222Z 18004KT 28/16 A2995 RMK A01 T02810164  RH  049%=      5-min Rain = 0
KMC1 142223Z 19003KT 28/17 A2995 RMK A01 T02810165  RH  049%=      5-min Rain = 0
KMC1 142224Z 19004KT 28/17 A2995 RMK A01 T02810166  RH  050%=      5-min Rain = 0
KMC1 142225Z 19003KT 28/17 A2995 RMK A01 T02810166  RH  050%=      5-min Rain = 0
KMC1 142226Z 21004KT 28/16 A2995 RMK A01 T02810163  RH  049%=      5-min Rain = 0
KMC1 142227Z 21002KT 28/16 A2995 RMK A01 T02800162  RH  049%=      5-min Rain = 0
KMC1 142228Z 21003KT 28/17 A2995 RMK A01 T02800165  RH  049%=      5-min Rain = 0
KMC1 142229Z 21003KT 28/17 A2995 RMK A01 T02800166  RH  050%=      5-min Rain = 0
KMC1 142230Z 21002KT 28/17 A2995 RMK A01 T02810167  RH  050%=      5-min Rain = 0
KMC1 142231Z 19003KT 28/17 A2995 RMK A01 T02810167  RH  050%=      5-min Rain = 0
KMC1 142232Z 21003KT 28/17 A2995 RMK A01 T02810166  RH  050%=      5-min Rain = 0
KMC1 142233Z 22003KT 28/17 A2995 RMK A01 T02800165  RH  049%=      5-min Rain = 0
KMC1 142234Z 22004KT 28/17 A2995 RMK A01 T02800165  RH  049%=      5-min Rain = 0
KMC1 142235Z 22003KT 28/17 A2995 RMK A01 T02810165  RH  049%=      5-min Rain = 0
KMC1 142236Z 21003KT 28/17 A2995 RMK A01 T02800165  RH  050%=      5-min Rain = 0
KMC1 142237Z 22003KT 28/17 A2995 RMK A01 T02800166  RH  050%=      5-min Rain = 0
KMC1 142238Z 21003KT 28/17 A2995 RMK A01 T02800166  RH  050%=      5-min Rain = 0
KMC1 142239Z 19003KT 28/17 A2995 RMK A01 T02800167  RH  050%=      5-min Rain = 0
KMC1 142240Z 21004KT 28/17 A2995 RMK A01 T02800166  RH  050%=      5-min Rain = 0
KMC1 142241Z 21003KT 28/17 A2995 RMK A01 T02800166  RH  050%=      5-min Rain = 0
KMC1 142242Z 22003KT 28/17 A2995 RMK A01 T02800166  RH  050%=      5-min Rain = 0
KMC1 142243Z 21003KT 28/17 A2995 RMK A01 T02810166  RH  050%=      5-min Rain = 0
KMC1 142244Z 23003KT 28/17 A2995 RMK A01 T02810166  RH  049%=      5-min Rain = 0
KMC1 142245Z 23002KT 28/17 A2995 RMK A01 T02810165  RH  049%=      5-min Rain = 0
KMC1 142246Z 24004KT 28/17 A2995 RMK A01 T02810167  RH  050%=      5-min Rain = 0
KMC1 142247Z 24004KT 28/17 A2995 RMK A01 T02810166  RH  050%=      5-min Rain = 0
KMC1 142248Z 24003KT 28/17 A2995 RMK A01 T02810165  RH  049%=      5-min Rain = 0
KMC1 142249Z 23004KT 28/17 A2995 RMK A01 T02810165  RH  049%=      5-min Rain = 0
KMC1 142250Z 22002KT 28/17 A2995 RMK A01 T02810165  RH  049%=      5-min Rain = 0
KMC1 142251Z 21003KT 28/17 A2995 RMK A01 T02810167  RH  050%=      5-min Rain = 0
KMC1 142252Z 21004KT 28/17 A2995 RMK A01 T02810165  RH  049%=      5-min Rain = 0
KMC1 142253Z 21004KT 28/16 A2995 RMK A01 T02810164  RH  049%=      5-min Rain = 0
KMC1 142254Z 20003KT 28/17 A2995 RMK A01 T02810165  RH  049%=      5-min Rain = 0
KMC1 142255Z 21003KT 28/16 A2995 RMK A01 T02820164  RH  049%=      5-min Rain = 0
KMC1 142256Z 21003KT 28/17 A2995 RMK A01 T02820165  RH  049%=      5-min Rain = 0
KMC1 142257Z 21003KT 28/16 A2995 RMK A01 T02820164  RH  049%=      5-min Rain = 0
KMC1 142258Z 21002KT 28/17 A2995 RMK A01 T02810166  RH  049%=      5-min Rain = 0
KMC1 142259Z 21002KT 28/17 A2995 RMK A01 T02820166  RH  049%=      5-min Rain = 0
KMC1 142300Z 21001KT 28/17 A2995 RMK A01 T02820166  RH  049%=      5-min Rain = 0
KMC1 142301Z 20001KT 28/17 A2995 RMK A01 T02820167  RH  050%=      5-min Rain = 0
KMC1 142302Z 21001KT 28/17 A2995 RMK A01 T02810167  RH  050%=      5-min Rain = 0
KMC1 142303Z 21001KT 28/17 A2995 RMK A01 T02810168  RH  050%=      5-min Rain = 0
KMC1 142304Z 23003KT 28/17 A2995 RMK A01 T02810167  RH  050%=      5-min Rain = 0
KMC1 142305Z 21003KT 28/17 A2995 RMK A01 T02810166  RH  050%=      5-min Rain = 0
KMC1 142306Z 20002KT 28/17 A2995 RMK A01 T02810167  RH  050%=      5-min Rain = 0
KMC1 142307Z 21002KT 28/17 A2995 RMK A01 T02800165  RH  050%=      5-min Rain = 0
KMC1 142308Z 21004KT 28/17 A2996 RMK A01 T02800166  RH  050%=      5-min Rain = 0
KMC1 142309Z 21003KT 28/17 A2996 RMK A01 T02800166  RH  050%=      5-min Rain = 0
KMC1 142310Z 21003KT 28/17 A2996 RMK A01 T02790166  RH  050%=      5-min Rain = 0
KMC1 142311Z 21004KT 28/16 A2996 RMK A01 T02790164  RH  050%=      5-min Rain = 0
KMC1 142312Z 22003KT 28/16 A2996 RMK A01 T02790164  RH  050%=      5-min Rain = 0
KMC1 142313Z 21003KT 28/16 A2996 RMK A01 T02790164  RH  050%=      5-min Rain = 0
KMC1 142314Z 19003KT 28/17 A2996 RMK A01 T02780165  RH  050%=      5-min Rain = 0
KMC1 142315Z 22003KT 28/16 A2996 RMK A01 T02780164  RH  050%=      5-min Rain = 0
KMC1 142316Z 21003KT 28/16 A2996 RMK A01 T02780164  RH  050%=      5-min Rain = 0
KMC1 142317Z 22002KT 28/17 A2996 RMK A01 T02780165  RH  050%=      5-min Rain = 0
KMC1 142318Z 21003KT 28/17 A2996 RMK A01 T02780165  RH  050%=      5-min Rain = 0
KMC1 142319Z 22003KT 28/17 A2996 RMK A01 T02780165  RH  050%=      5-min Rain = 0
KMC1 142320Z 21003KT 28/16 A2996 RMK A01 T02780164  RH  050%=      5-min Rain = 0
KMC1 142321Z 21003KT 28/17 A2996 RMK A01 T02770165  RH  050%=      5-min Rain = 0
KMC1 142322Z 21003KT 28/17 A2996 RMK A01 T02770165  RH  051%=      5-min Rain = 0
KMC1 142323Z 22004KT 28/16 A2996 RMK A01 T02770164  RH  050%=      5-min Rain = 0
KMC1 142324Z 22004KT 28/16 A2996 RMK A01 T02760163  RH  050%=      5-min Rain = 0
KMC1 142325Z 21003KT 28/16 A2996 RMK A01 T02760162  RH  050%=      5-min Rain = 0
KMC1 142326Z 22003KT 28/16 A2996 RMK A01 T02760163  RH  050%=      5-min Rain = 0
KMC1 142327Z 22002KT 28/16 A2996 RMK A01 T02770164  RH  050%=      5-min Rain = 0
KMC1 142328Z 22002KT 28/17 A2996 RMK A01 T02760165  RH  051%=      5-min Rain = 0
KMC1 142329Z 21001KT 28/17 A2996 RMK A01 T02760165  RH  051%=      5-min Rain = 0
KMC1 142330Z 20002KT 28/17 A2996 RMK A01 T02760165  RH  051%=      5-min Rain = 0
KMC1 142331Z 20002KT 28/16 A2996 RMK A01 T02750164  RH  051%=      5-min Rain = 0
KMC1 142332Z 19002KT 28/17 A2996 RMK A01 T02750165  RH  051%=      5-min Rain = 0
KMC1 142333Z 20002KT 28/17 A2996 RMK A01 T02750165  RH  051%=      5-min Rain = 0
KMC1 142334Z 19001KT 28/17 A2996 RMK A01 T02750165  RH  051%=      5-min Rain = 0
KMC1 142335Z 19001KT 28/17 A2996 RMK A01 T02750165  RH  051%=      5-min Rain = 0
KMC1 142336Z 20002KT 28/17 A2996 RMK A01 T02750165  RH  051%=      5-min Rain = 0
KMC1 142337Z 19002KT 27/17 A2996 RMK A01 T02740166  RH  052%=      5-min Rain = 0
KMC1 142338Z 20003KT 27/17 A2996 RMK A01 T02740166  RH  052%=      5-min Rain = 0
KMC1 142339Z 21004KT 27/17 A2996 RMK A01 T02730165  RH  052%=      5-min Rain = 0
KMC1 142340Z 21003KT 27/17 A2996 RMK A01 T02730165  RH  052%=      5-min Rain = 0
KMC1 142341Z 21003KT 27/17 A2996 RMK A01 T02730165  RH  052%=      5-min Rain = 0
KMC1 142342Z 21004KT 27/17 A2996 RMK A01 T02720165  RH  052%=      5-min Rain = 0
KMC1 142343Z 22003KT 27/16 A2996 RMK A01 T02720164  RH  052%=      5-min Rain = 0
KMC1 142344Z 22003KT 27/16 A2996 RMK A01 T02720164  RH  052%=      5-min Rain = 0
KMC1 142345Z 21004KT 27/16 A2996 RMK A01 T02710164  RH  052%=      5-min Rain = 0
KMC1 142346Z 21003KT 27/16 A2996 RMK A01 T02710163  RH  052%=      5-min Rain = 0
KMC1 142347Z 22003KT 27/16 A2996 RMK A01 T02710164  RH  052%=      5-min Rain = 0
KMC1 142348Z 21003KT 27/16 A2996 RMK A01 T02700164  RH  052%=      5-min Rain = 0
KMC1 142349Z 22003KT 27/16 A2996 RMK A01 T02700163  RH  052%=      5-min Rain = 0
KMC1 142350Z 20004KT 27/16 A2996 RMK A01 T02690162  RH  052%=      5-min Rain = 0
KMC1 142351Z 21003KT 27/16 A2996 RMK A01 T02690162  RH  052%=      5-min Rain = 0
KMC1 142352Z 20002KT 27/16 A2996 RMK A01 T02690162  RH  052%=      5-min Rain = 0
KMC1 142353Z 20003KT 27/16 A2996 RMK A01 T02690162  RH  052%=      5-min Rain = 0
KMC1 142354Z 20003KT 27/16 A2996 RMK A01 T02690162  RH  052%=      5-min Rain = 0
KMC1 142355Z 20002KT 27/16 A2996 RMK A01 T02690162  RH  052%=      5-min Rain = 0
KMC1 142356Z 20002KT 27/16 A2996 RMK A01 T02680163  RH  052%=      5-min Rain = 0
KMC1 142357Z 20002KT 27/16 A2996 RMK A01 T02670162  RH  053%=      5-min Rain = 0
KMC1 142358Z 21002KT 27/16 A2996 RMK A01 T02670163  RH  053%=      5-min Rain = 0
KMC1 142359Z 20002KT 27/16 A2996 RMK A01 T02660162  RH  053%=      5-min Rain = 0
KMC1 150000Z 20002KT 27/16 A2996 RMK A01 T02660163  RH  053%=      5-min Rain = 0
KMC1 150001Z 20003KT 27/16 A2996 RMK A01 T02650163  RH  053%=      5-min Rain = 0
KMC1 150002Z 20003KT 26/16 A2996 RMK A01 T02640162  RH  053%=      5-min Rain = 0
KMC1 150003Z 20003KT 26/16 A2996 RMK A01 T02640162  RH  053%=      5-min Rain = 0
KMC1 150004Z 20002KT 26/16 A2996 RMK A01 T02640162  RH  053%=      5-min Rain = 0
KMC1 150005Z 19002KT 26/16 A2996 RMK A01 T02640162  RH  053%=      5-min Rain = 0
KMC1 150006Z 20002KT 26/16 A2996 RMK A01 T02630162  RH  053%=      5-min Rain = 0
KMC1 150007Z 19003KT 26/16 A2996 RMK A01 T02630162  RH  054%=      5-min Rain = 0
KMC1 150008Z 19002KT 26/16 A2996 RMK A01 T02630161  RH  054%=      5-min Rain = 0
KMC1 150009Z 19003KT 26/16 A2996 RMK A01 T02620161  RH  054%=      5-min Rain = 0
KMC1 150010Z 19002KT 26/16 A2996 RMK A01 T02620160  RH  054%=      5-min Rain = 0
KMC1 150011Z 19002KT 26/16 A2996 RMK A01 T02620161  RH  054%=      5-min Rain = 0
KMC1 150012Z 19002KT 26/16 A2996 RMK A01 T02610160  RH  054%=      5-min Rain = 0
KMC1 150013Z 19003KT 26/16 A2996 RMK A01 T02610160  RH  054%=      5-min Rain = 0
KMC1 150014Z 19002KT 26/16 A2996 RMK A01 T02600161  RH  054%=      5-min Rain = 0
KMC1 150015Z 19003KT 26/16 A2996 RMK A01 T02600161  RH  054%=      5-min Rain = 0
KMC1 150016Z 19002KT 26/16 A2996 RMK A01 T02590161  RH  055%=      5-min Rain = 0
KMC1 150017Z 19003KT 26/16 A2996 RMK A01 T02580161  RH  055%=      5-min Rain = 0
KMC1 150018Z 18003KT 26/16 A2996 RMK A01 T02580161  RH  055%=      5-min Rain = 0
KMC1 150019Z 19003KT 26/16 A2996 RMK A01 T02580161  RH  055%=      5-min Rain = 0
KMC1 150020Z 18003KT 26/16 A2996 RMK A01 T02570161  RH  055%=      5-min Rain = 0
KMC1 150021Z 18003KT 26/16 A2996 RMK A01 T02560161  RH  055%=      5-min Rain = 0
KMC1 150022Z 19003KT 26/16 A2996 RMK A01 T02560161  RH  056%=      5-min Rain = 0
KMC1 150023Z 18003KT 26/16 A2996 RMK A01 T02560161  RH  056%=      5-min Rain = 0
KMC1 150024Z 19003KT 26/16 A2996 RMK A01 T02560161  RH  056%=      5-min Rain = 0
KMC1 150025Z 19003KT 26/16 A2996 RMK A01 T02560161  RH  056%=      5-min Rain = 0
KMC1 150026Z 19003KT 26/16 A2996 RMK A01 T02560161  RH  056%=      5-min Rain = 0
KMC1 150027Z 19002KT 26/16 A2996 RMK A01 T02550161  RH  056%=      5-min Rain = 0
KMC1 150028Z 19002KT 26/16 A2996 RMK A01 T02550161  RH  056%=      5-min Rain = 0
KMC1 150029Z 19002KT 26/16 A2996 RMK A01 T02550160  RH  056%=      5-min Rain = 0
KMC1 150030Z 19002KT 26/16 A2996 RMK A01 T02550160  RH  056%=      5-min Rain = 0
KMC1 150031Z 19002KT 26/16 A2996 RMK A01 T02550161  RH  056%=      5-min Rain = 0
KMC1 150032Z 19002KT 25/16 A2996 RMK A01 T02540160  RH  056%=      5-min Rain = 0
KMC1 150033Z 19002KT 25/16 A2996 RMK A01 T02540160  RH  056%=      5-min Rain = 0
KMC1 150034Z 18002KT 25/16 A2996 RMK A01 T02540160  RH  056%=      5-min Rain = 0
KMC1 150035Z 18002KT 25/16 A2996 RMK A01 T02540160  RH  056%=      5-min Rain = 0
KMC1 150036Z 18002KT 25/16 A2996 RMK A01 T02540160  RH  056%=      5-min Rain = 0
KMC1 150037Z 18002KT 25/16 A2996 RMK A01 T02540160  RH  056%=      5-min Rain = 0
KMC1 150038Z 18002KT 25/16 A2996 RMK A01 T02530160  RH  056%=      5-min Rain = 0
KMC1 150039Z 18002KT 25/16 A2996 RMK A01 T02530160  RH  056%=      5-min Rain = 0
KMC1 150040Z 18002KT 25/16 A2996 RMK A01 T02530160  RH  056%=      5-min Rain = 0
KMC1 150041Z 18002KT 25/16 A2996 RMK A01 T02530161  RH  057%=      5-min Rain = 0
KMC1 150042Z 18002KT 25/16 A2996 RMK A01 T02520160  RH  057%=      5-min Rain = 0
KMC1 150043Z 18002KT 25/16 A2996 RMK A01 T02520160  RH  057%=      5-min Rain = 0
KMC1 150044Z 18002KT 25/16 A2996 RMK A01 T02510160  RH  057%=      5-min Rain = 0
KMC1 150045Z 19003KT 25/16 A2996 RMK A01 T02510160  RH  057%=      5-min Rain = 0
KMC1 150046Z 19002KT 25/16 A2996 RMK A01 T02510160  RH  057%=      5-min Rain = 0
KMC1 150047Z 19003KT 25/16 A2996 RMK A01 T02510160  RH  057%=      5-min Rain = 0
KMC1 150048Z 20003KT 25/16 A2996 RMK A01 T02500160  RH  057%=      5-min Rain = 0
KMC1 150049Z 19002KT 25/16 A2996 RMK A01 T02500160  RH  057%=      5-min Rain = 0
KMC1 150050Z 20002KT 25/16 A2996 RMK A01 T02500160  RH  057%=      5-min Rain = 0
KMC1 150051Z 20002KT 25/16 A2996 RMK A01 T02500159  RH  057%=      5-min Rain = 0
KMC1 150052Z 20002KT 25/16 A2996 RMK A01 T02500159  RH  057%=      5-min Rain = 0
KMC1 150053Z 19002KT 25/16 A2996 RMK A01 T02500158  RH  057%=      5-min Rain = 0
KMC1 150054Z 19002KT 25/16 A2996 RMK A01 T02510159  RH  057%=      5-min Rain = 0
KMC1 150055Z 18002KT 25/16 A2996 RMK A01 T02510158  RH  056%=      5-min Rain = 0
KMC1 150056Z 18002KT 25/16 A2996 RMK A01 T02510158  RH  056%=      5-min Rain = 0
KMC1 150057Z 17002KT 25/16 A2996 RMK A01 T02510158  RH  056%=      5-min Rain = 0
KMC1 150058Z 16002KT 25/16 A2996 RMK A01 T02510159  RH  057%=      5-min Rain = 0
KMC1 150059Z 16002KT 25/16 A2996 RMK A01 T02510160  RH  057%=      5-min Rain = 0
KMC1 150100Z 16002KT 25/16 A2996 RMK A01 T02500160  RH  058%=      5-min Rain = 0
KMC1 150101Z 17003KT 25/16 A2996 RMK A01 T02490161  RH  058%=      5-min Rain = 0
KMC1 150102Z 17003KT 25/16 A2996 RMK A01 T02480161  RH  059%=      5-min Rain = 0
KMC1 150103Z 17003KT 25/16 A2996 RMK A01 T02470161  RH  059%=      5-min Rain = 0
KMC1 150104Z 16003KT 25/16 A2996 RMK A01 T02460160  RH  058%=      5-min Rain = 0
KMC1 150105Z 16003KT 25/16 A2996 RMK A01 T02470160  RH  058%=      5-min Rain = 0
KMC1 150106Z 16003KT 25/16 A2996 RMK A01 T02470160  RH  059%=      5-min Rain = 0
KMC1 150107Z 16003KT 25/16 A2996 RMK A01 T02470159  RH  058%=      5-min Rain = 0
KMC1 150108Z 15003KT 25/16 A2996 RMK A01 T02470159  RH  058%=      5-min Rain = 0
KMC1 150109Z 15003KT 25/16 A2996 RMK A01 T02470160  RH  058%=      5-min Rain = 0
KMC1 150110Z 15003KT 25/16 A2996 RMK A01 T02470160  RH  058%=      5-min Rain = 0
KMC1 150111Z 16003KT 25/16 A2996 RMK A01 T02460159  RH  058%=      5-min Rain = 0
KMC1 150112Z 16003KT 25/16 A2996 RMK A01 T02470160  RH  058%=      5-min Rain = 0
KMC1 150113Z 15003KT 25/16 A2996 RMK A01 T02470160  RH  058%=      5-min Rain = 0
KMC1 150114Z 16003KT 25/16 A2996 RMK A01 T02470160  RH  058%=      5-min Rain = 0
KMC1 150115Z 17003KT 25/16 A2996 RMK A01 T02470160  RH  058%=      5-min Rain = 0
KMC1 150116Z 17003KT 25/16 A2996 RMK A01 T02460160  RH  058%=      5-min Rain = 0
KMC1 150117Z 17003KT 25/16 A2996 RMK A01 T02460159  RH  058%=      5-min Rain = 0
KMC1 150118Z 17004KT 25/16 A2996 RMK A01 T02460159  RH  058%=      5-min Rain = 0
KMC1 150119Z 17004KT 25/16 A2996 RMK A01 T02460159  RH  058%=      5-min Rain = 0
KMC1 150120Z 17004KT 25/16 A2996 RMK A01 T02460159  RH  058%=      5-min Rain = 0
KMC1 150121Z 17004KT 25/16 A2996 RMK A01 T02460159  RH  058%=      5-min Rain = 0
KMC1 150122Z 17004KT 25/16 A2996 RMK A01 T02460158  RH  058%=      5-min Rain = 0
KMC1 150123Z 17004KT 25/16 A2996 RMK A01 T02460158  RH  058%=      5-min Rain = 0
KMC1 150124Z 17004KT 25/16 A2996 RMK A01 T02460158  RH  058%=      5-min Rain = 0
KMC1 150125Z 17003KT 25/16 A2996 RMK A01 T02460158  RH  058%=      5-min Rain = 0
KMC1 150126Z 18004KT 25/16 A2996 RMK A01 T02460158  RH  058%=      5-min Rain = 0
KMC1 150127Z 18003KT 25/16 A2996 RMK A01 T02460158  RH  058%=      5-min Rain = 0
KMC1 150128Z 17003KT 25/16 A2996 RMK A01 T02470158  RH  058%=      5-min Rain = 0
KMC1 150129Z 17003KT 25/16 A2996 RMK A01 T02470158  RH  058%=      5-min Rain = 0
KMC1 150130Z 17002KT 25/16 A2996 RMK A01 T02470158  RH  058%=      5-min Rain = 0
KMC1 150131Z 17003KT 25/16 A2996 RMK A01 T02470158  RH  058%=      5-min Rain = 0
KMC1 150132Z 18003KT 25/16 A2996 RMK A01 T02470158  RH  058%=      5-min Rain = 0
KMC1 150133Z 18003KT 25/16 A2996 RMK A01 T02470158  RH  058%=      5-min Rain = 0
KMC1 150134Z 19002KT 25/16 A2997 RMK A01 T02460159  RH  058%=      5-min Rain = 0
KMC1 150135Z 20003KT 25/16 A2997 RMK A01 T02450160  RH  059%=      5-min Rain = 0
KMC1 150136Z 20003KT 24/16 A2997 RMK A01 T02440160  RH  060%=      5-min Rain = 0
KMC1 150137Z 20003KT 24/16 A2997 RMK A01 T02420161  RH  060%=      5-min Rain = 0
KMC1 150138Z 19003KT 24/16 A2997 RMK A01 T02410160  RH  061%=      5-min Rain = 0
KMC1 150139Z 20003KT 24/16 A2997 RMK A01 T02400160  RH  061%=      5-min Rain = 0
KMC1 150140Z 20003KT 24/16 A2997 RMK A01 T02400161  RH  061%=      5-min Rain = 0
KMC1 150141Z 21003KT 24/16 A2997 RMK A01 T02390161  RH  061%=      5-min Rain = 0
KMC1 150142Z 21003KT 24/16 A2997 RMK A01 T02390161  RH  062%=      5-min Rain = 0
KMC1 150143Z 21003KT 24/16 A2997 RMK A01 T02390161  RH  062%=      5-min Rain = 0
KMC1 150144Z 21002KT 24/16 A2997 RMK A01 T02380161  RH  062%=      5-min Rain = 0
KMC1 150145Z 20002KT 24/16 A2997 RMK A01 T02380161  RH  062%=      5-min Rain = 0
KMC1 150146Z 20003KT 24/16 A2997 RMK A01 T02370162  RH  063%=      5-min Rain = 0
KMC1 150147Z 20003KT 24/16 A2997 RMK A01 T02370162  RH  063%=      5-min Rain = 0
KMC1 150148Z 19003KT 24/16 A2997 RMK A01 T02370163  RH  063%=      5-min Rain = 0
KMC1 150149Z 20003KT 24/16 A2997 RMK A01 T02360163  RH  064%=      5-min Rain = 0
KMC1 150150Z 19003KT 24/16 A2997 RMK A01 T02360164  RH  064%=      5-min Rain = 0
KMC1 150151Z 19003KT 24/16 A2997 RMK A01 T02350164  RH  065%=      5-min Rain = 0
KMC1 150152Z 20003KT 23/16 A2997 RMK A01 T02340164  RH  065%=      5-min Rain = 0
KMC1 150153Z 19003KT 23/16 A2997 RMK A01 T02330164  RH  065%=      5-min Rain = 0
KMC1 150154Z 19003KT 23/16 A2997 RMK A01 T02330164  RH  065%=      5-min Rain = 0
KMC1 150155Z 19003KT 23/16 A2997 RMK A01 T02320164  RH  065%=      5-min Rain = 0
KMC1 150156Z 19003KT 23/16 A2998 RMK A01 T02320164  RH  065%=      5-min Rain = 0
KMC1 150157Z 19003KT 23/16 A2998 RMK A01 T02320164  RH  065%=      5-min Rain = 0
KMC1 150158Z 19003KT 23/16 A2998 RMK A01 T02320164  RH  065%=      5-min Rain = 0
KMC1 150159Z 19003KT 23/16 A2998 RMK A01 T02320163  RH  065%=      5-min Rain = 0
KMC1 150200Z 18003KT 23/16 A2998 RMK A01 T02310163  RH  065%=      5-min Rain = 0
KMC1 150201Z 18004KT 23/16 A2998 RMK A01 T02310162  RH  065%=      5-min Rain = 0
KMC1 150202Z 17005KT 23/16 A2998 RMK A01 T02320162  RH  065%=      5-min Rain = 0
KMC1 150203Z 17005KT 23/16 A2998 RMK A01 T02310161  RH  065%=      5-min Rain = 0
KMC1 150204Z 17005KT 23/16 A2998 RMK A01 T02320161  RH  064%=      5-min Rain = 0
KMC1 150205Z 17005KT 23/16 A2998 RMK A01 T02320160  RH  064%=      5-min Rain = 0
KMC1 150206Z 17005KT 23/16 A2998 RMK A01 T02330160  RH  064%=      5-min Rain = 0
KMC1 150207Z 17005KT 23/16 A2998 RMK A01 T02330160  RH  063%=      5-min Rain = 0
KMC1 150208Z 17004KT 23/16 A2998 RMK A01 T02330159  RH  063%=      5-min Rain = 0
KMC1 150209Z 17005KT 23/16 A2998 RMK A01 T02340159  RH  063%=      5-min Rain = 0
KMC1 150210Z 17005KT 23/16 A2998 RMK A01 T02340159  RH  063%=      5-min Rain = 0
KMC1 150211Z 16005KT 23/16 A2998 RMK A01 T02340159  RH  063%=      5-min Rain = 0
KMC1 150212Z 16005KT 23/16 A2998 RMK A01 T02340159  RH  063%=      5-min Rain = 0
KMC1 150213Z 16004KT 23/16 A2998 RMK A01 T02340160  RH  063%=      5-min Rain = 0
KMC1 150214Z 16005KT 23/16 A2998 RMK A01 T02340160  RH  063%=      5-min Rain = 0
KMC1 150215Z 16005KT 23/16 A2998 RMK A01 T02340160  RH  063%=      5-min Rain = 0
KMC1 150216Z 16005KT 23/16 A2998 RMK A01 T02330160  RH  064%=      5-min Rain = 0
KMC1 150217Z 16005KT 23/16 A2998 RMK A01 T02320160  RH  064%=      5-min Rain = 0
KMC1 150218Z 17006KT 23/16 A2998 RMK A01 T02320160  RH  064%=      5-min Rain = 0
KMC1 150219Z 16005KT 23/16 A2998 RMK A01 T02320160  RH  064%=      5-min Rain = 0
KMC1 150220Z 16005KT 23/16 A2998 RMK A01 T02320160  RH  064%=      5-min Rain = 0
KMC1 150221Z 16005KT 23/16 A2998 RMK A01 T02320160  RH  064%=      5-min Rain = 0
KMC1 150222Z 16005KT 23/16 A2998 RMK A01 T02320159  RH  063%=      5-min Rain = 0
KMC1 150223Z 16004KT 23/16 A2998 RMK A01 T02330159  RH  063%=      5-min Rain = 0
KMC1 150224Z 17004KT 23/16 A2998 RMK A01 T02330159  RH  063%=      5-min Rain = 0
KMC1 150225Z 17005KT 23/16 A2998 RMK A01 T02330159  RH  063%=      5-min Rain = 0
KMC1 150226Z 16004KT 23/16 A2998 RMK A01 T02330159  RH  063%=      5-min Rain = 0
KMC1 150227Z 17004KT 23/16 A2998 RMK A01 T02330158  RH  063%=      5-min Rain = 0
KMC1 150228Z 17004KT 23/16 A2998 RMK A01 T02330158  RH  063%=      5-min Rain = 0
KMC1 150229Z 16004KT 23/16 A2998 RMK A01 T02330158  RH  063%=      5-min Rain = 0
KMC1 150230Z 17005KT 23/16 A2998 RMK A01 T02330159  RH  063%=      5-min Rain = 0
KMC1 150231Z 17005KT 23/16 A2998 RMK A01 T02330158  RH  063%=      5-min Rain = 0
KMC1 150232Z 17004KT 23/16 A2998 RMK A01 T02340159  RH  063%=      5-min Rain = 0
KMC1 150233Z 17005KT 23/16 A2998 RMK A01 T02340159  RH  063%=      5-min Rain = 0
KMC1 150234Z 18004KT 24/16 A2998 RMK A01 T02350159  RH  063%=      5-min Rain = 0
KMC1 150235Z 18004KT 24/16 A2998 RMK A01 T02350160  RH  063%=      5-min Rain = 0
KMC1 150236Z 18005KT 24/16 A2998 RMK A01 T02350160  RH  063%=      5-min Rain = 0
KMC1 150237Z 18005KT 24/16 A2998 RMK A01 T02350160  RH  063%=      5-min Rain = 0
KMC1 150238Z 18005KT 24/16 A2998 RMK A01 T02350161  RH  063%=      5-min Rain = 0
KMC1 150239Z 17006KT 24/16 A2998 RMK A01 T02350161  RH  063%=      5-min Rain = 0
KMC1 150240Z 17006KT 24/16 A2998 RMK A01 T02360161  RH  063%=      5-min Rain = 0
KMC1 150241Z 17005KT 24/16 A2998 RMK A01 T02360162  RH  063%=      5-min Rain = 0
KMC1 150242Z 17005KT 24/16 A2997 RMK A01 T02360162  RH  063%=      5-min Rain = 0
KMC1 150243Z 17005KT 24/16 A2997 RMK A01 T02360163  RH  063%=      5-min Rain = 0
KMC1 150244Z 17005KT 24/16 A2997 RMK A01 T02360163  RH  064%=      5-min Rain = 0
KMC1 150245Z 17005KT 24/16 A2997 RMK A01 T02360163  RH  064%=      5-min Rain = 0
KMC1 150246Z 17005KT 24/16 A2997 RMK A01 T02360164  RH  064%=      5-min Rain = 0
KMC1 150247Z 17005KT 24/16 A2997 RMK A01 T02360164  RH  064%=      5-min Rain = 0
KMC1 150248Z 16005KT 24/16 A2998 RMK A01 T02360164  RH  064%=      5-min Rain = 0
KMC1 150249Z 16004KT 24/16 A2998 RMK A01 T02350164  RH  064%=      5-min Rain = 0
KMC1 150250Z 17004KT 24/16 A2998 RMK A01 T02350164  RH  064%=      5-min Rain = 0
KMC1 150251Z 17005KT 24/16 A2998 RMK A01 T02350164  RH  065%=      5-min Rain = 0
KMC1 150252Z 16004KT 24/16 A2998 RMK A01 T02350164  RH  065%=      5-min Rain = 0
KMC1 150253Z 16004KT 23/16 A2998 RMK A01 T02340164  RH  065%=      5-min Rain = 0
KMC1 150254Z 17005KT 23/16 A2998 RMK A01 T02340164  RH  065%=      5-min Rain = 0
KMC1 150255Z 17004KT 23/16 A2998 RMK A01 T02330164  RH  065%=      5-min Rain = 0
KMC1 150256Z 17004KT 23/16 A2998 RMK A01 T02330164  RH  065%=      5-min Rain = 0
KMC1 150257Z 17004KT 23/16 A2998 RMK A01 T02330164  RH  065%=      5-min Rain = 0
KMC1 150258Z 17004KT 23/16 A2998 RMK A01 T02320164  RH  065%=      5-min Rain = 0
KMC1 150259Z 18004KT 23/16 A2998 RMK A01 T02320164  RH  066%=      5-min Rain = 0
KMC1 150300Z 17005KT 23/16 A2998 RMK A01 T02320164  RH  066%=      5-min Rain = 0
KMC1 150301Z 16005KT 23/16 A2998 RMK A01 T02310164  RH  066%=      5-min Rain = 0
KMC1 150302Z 17005KT 23/16 A2998 RMK A01 T02320164  RH  066%=      5-min Rain = 0
KMC1 150303Z 17004KT 23/16 A2998 RMK A01 T02320164  RH  066%=      5-min Rain = 0
KMC1 150304Z 17004KT 23/17 A2998 RMK A01 T02320165  RH  066%=      5-min Rain = 0
KMC1 150305Z 17004KT 23/17 A2998 RMK A01 T02310165  RH  066%=      5-min Rain = 0
KMC1 150306Z 17004KT 23/17 A2998 RMK A01 T02310165  RH  066%=      5-min Rain = 0
KMC1 150307Z 17005KT 23/17 A2998 RMK A01 T02310165  RH  066%=      5-min Rain = 0
KMC1 150308Z 17004KT 23/17 A2998 RMK A01 T02310165  RH  067%=      5-min Rain = 0
KMC1 150309Z 17004KT 23/17 A2998 RMK A01 T02310165  RH  067%=      5-min Rain = 0
KMC1 150310Z 17004KT 23/17 A2998 RMK A01 T02300165  RH  067%=      5-min Rain = 0
KMC1 150311Z 17004KT 23/17 A2998 RMK A01 T02300166  RH  067%=      5-min Rain = 0
KMC1 150312Z 17004KT 23/17 A2998 RMK A01 T02300166  RH  067%=      5-min Rain = 0
KMC1 150313Z 18005KT 23/17 A2998 RMK A01 T02300166  RH  067%=      5-min Rain = 0
KMC1 150314Z 18004KT 23/17 A2998 RMK A01 T02300166  RH  067%=      5-min Rain = 0
KMC1 150315Z 18005KT 23/17 A2998 RMK A01 T02300166  RH  067%=      5-min Rain = 0
KMC1 150316Z 18005KT 23/17 A2999 RMK A01 T02300166  RH  067%=      5-min Rain = 0
KMC1 150317Z 18004KT 23/17 A2999 RMK A01 T02300166  RH  067%=      5-min Rain = 0
KMC1 150318Z 17004KT 23/17 A2999 RMK A01 T02300166  RH  067%=      5-min Rain = 0
KMC1 150319Z 17004KT 23/17 A2999 RMK A01 T02300166  RH  067%=      5-min Rain = 0
KMC1 150320Z 18004KT 23/17 A2999 RMK A01 T02300167  RH  067%=      5-min Rain = 0
KMC1 150321Z 18003KT 23/17 A2999 RMK A01 T02300167  RH  068%=      5-min Rain = 0
KMC1 150322Z 18004KT 23/17 A2999 RMK A01 T02300167  RH  068%=      5-min Rain = 0
KMC1 150323Z 18003KT 23/17 A2999 RMK A01 T02300167  RH  068%=      5-min Rain = 0
KMC1 150324Z 19002KT 23/17 A2999 RMK A01 T02300167  RH  068%=      5-min Rain = 0
KMC1 150325Z 18002KT 23/17 A2999 RMK A01 T02290167  RH  068%=      5-min Rain = 0
KMC1 150326Z 19003KT 23/17 A2999 RMK A01 T02290167  RH  068%=      5-min Rain = 0
KMC1 150327Z 19003KT 23/17 A2999 RMK A01 T02290167  RH  068%=      5-min Rain = 0
KMC1 150328Z 19003KT 23/17 A2999 RMK A01 T02290168  RH  068%=      5-min Rain = 0
KMC1 150329Z 18004KT 23/17 A2999 RMK A01 T02290168  RH  068%=      5-min Rain = 0
KMC1 150330Z 18004KT 23/17 A2999 RMK A01 T02290168  RH  069%=      5-min Rain = 0
KMC1 150331Z 18004KT 23/17 A2999 RMK A01 T02290168  RH  069%=      5-min Rain = 0
KMC1 150332Z 18003KT 23/17 A2999 RMK A01 T02290168  RH  069%=      5-min Rain = 0
KMC1 150333Z 18004KT 23/17 A2999 RMK A01 T02290168  RH  069%=      5-min Rain = 0
KMC1 150334Z 18004KT 23/17 A2999 RMK A01 T02290168  RH  069%=      5-min Rain = 0
KMC1 150335Z 18005KT 23/17 A2999 RMK A01 T02290169  RH  069%=      5-min Rain = 0
KMC1 150336Z 18004KT 23/17 A2999 RMK A01 T02290169  RH  069%=      5-min Rain = 0
KMC1 150337Z 18004KT 23/17 A2999 RMK A01 T02290169  RH  069%=      5-min Rain = 0
KMC1 150338Z 18004KT 23/17 A2999 RMK A01 T02290169  RH  069%=      5-min Rain = 0
KMC1 150339Z 17003KT 23/17 A2998 RMK A01 T02290169  RH  069%=      5-min Rain = 0
KMC1 150340Z 17003KT 23/17 A2998 RMK A01 T02290169  RH  069%=      5-min Rain = 0
KMC1 150341Z 16003KT 23/17 A2998 RMK A01 T02280169  RH  069%=      5-min Rain = 0
KMC1 150342Z 17002KT 23/17 A2998 RMK A01 T02290170  RH  069%=      5-min Rain = 0
KMC1 150343Z 17002KT 23/17 A2998 RMK A01 T02280169  RH  069%=      5-min Rain = 0
KMC1 150344Z 17002KT 23/17 A2998 RMK A01 T02280170  RH  069%=      5-min Rain = 0
KMC1 150345Z 17002KT 23/17 A2998 RMK A01 T02280170  RH  069%=      5-min Rain = 0
KMC1 150346Z 17002KT 23/17 A2998 RMK A01 T02280170  RH  069%=      5-min Rain = 0
KMC1 150347Z 17002KT 23/17 A2999 RMK A01 T02280170  RH  070%=      5-min Rain = 0
KMC1 150348Z 17002KT 23/17 A2999 RMK A01 T02280170  RH  070%=      5-min Rain = 0
KMC1 150349Z 17003KT 23/17 A2999 RMK A01 T02280170  RH  070%=      5-min Rain = 0
KMC1 150350Z 17003KT 23/17 A2999 RMK A01 T02280170  RH  070%=      5-min Rain = 0
KMC1 150351Z 17003KT 23/17 A2999 RMK A01 T02280170  RH  070%=      5-min Rain = 0
KMC1 150352Z 17003KT 23/17 A2999 RMK A01 T02280170  RH  070%=      5-min Rain = 0
KMC1 150353Z 18003KT 23/17 A2999 RMK A01 T02280170  RH  070%=      5-min Rain = 0
KMC1 150354Z 18004KT 23/17 A2999 RMK A01 T02280170  RH  070%=      5-min Rain = 0
KMC1 150355Z 18004KT 23/17 A2999 RMK A01 T02280170  RH  070%=      5-min Rain = 0
KMC1 150356Z 18004KT 23/17 A2999 RMK A01 T02280170  RH  070%=      5-min Rain = 0
KMC1 150357Z 18004KT 23/17 A2999 RMK A01 T02280170  RH  070%=      5-min Rain = 0
KMC1 150358Z 18003KT 23/17 A2999 RMK A01 T02280170  RH  070%=      5-min Rain = 0
KMC1 150359Z 18003KT 23/17 A2999 RMK A01 T02280171  RH  070%=      5-min Rain = 0
KMC1 150400Z 18003KT 23/17 A2999 RMK A01 T02280171  RH  070%=      5-min Rain = 0
KMC1 150401Z 18003KT 23/17 A2999 RMK A01 T02280171  RH  070%=      5-min Rain = 0
KMC1 150402Z 18003KT 23/17 A2999 RMK A01 T02280171  RH  070%=      5-min Rain = 0
KMC1 150403Z 18003KT 23/17 A2999 RMK A01 T02280171  RH  070%=      5-min Rain = 0
KMC1 150404Z 18003KT 23/17 A2999 RMK A01 T02280171  RH  070%=      5-min Rain = 0
KMC1 150405Z 18003KT 23/17 A2999 RMK A01 T02280171  RH  070%=      5-min Rain = 0
KMC1 150406Z 17003KT 23/17 A2999 RMK A01 T02280171  RH  070%=      5-min Rain = 0
KMC1 150407Z 17003KT 23/17 A2999 RMK A01 T02280171  RH  070%=      5-min Rain = 0
KMC1 150408Z 18003KT 23/17 A2999 RMK A01 T02290171  RH  070%=      5-min Rain = 0
KMC1 150409Z 18003KT 23/17 A2999 RMK A01 T02280171  RH  070%=      5-min Rain = 0
KMC1 150410Z 19003KT 23/17 A2999 RMK A01 T02290172  RH  070%=      5-min Rain = 0
KMC1 150411Z 19003KT 23/17 A2999 RMK A01 T02280171  RH  070%=      5-min Rain = 0
KMC1 150412Z 19002KT 23/17 A2999 RMK A01 T02280171  RH  070%=      5-min Rain = 0
KMC1 150413Z 20002KT 23/17 A2999 RMK A01 T02290172  RH  070%=      5-min Rain = 0
KMC1 150414Z 20003KT 23/17 A2999 RMK A01 T02280172  RH  070%=      5-min Rain = 0
KMC1 150415Z 21003KT 23/17 A2999 RMK A01 T02270171  RH  071%=      5-min Rain = 0
KMC1 150416Z 21003KT 23/17 A2999 RMK A01 T02270171  RH  071%=      5-min Rain = 0
KMC1 150417Z 21003KT 23/17 A2999 RMK A01 T02270171  RH  071%=      5-min Rain = 0
KMC1 150418Z 20003KT 23/17 A2999 RMK A01 T02260171  RH  071%=      5-min Rain = 0
KMC1 150419Z 20003KT 23/17 A2999 RMK A01 T02260171  RH  071%=      5-min Rain = 0
KMC1 150420Z 19003KT 23/17 A2999 RMK A01 T02260172  RH  071%=      5-min Rain = 0
KMC1 150421Z 19003KT 23/17 A2999 RMK A01 T02260171  RH  071%=      5-min Rain = 0
KMC1 150422Z 19003KT 23/17 A2999 RMK A01 T02260171  RH  071%=      5-min Rain = 0
KMC1 150423Z 18002KT 23/17 A2999 RMK A01 T02260171  RH  071%=      5-min Rain = 0
KMC1 150424Z 18003KT 23/17 A2999 RMK A01 T02260171  RH  071%=      5-min Rain = 0
KMC1 150425Z 18003KT 23/17 A2999 RMK A01 T02260171  RH  071%=      5-min Rain = 0
KMC1 150426Z 17003KT 23/17 A2999 RMK A01 T02260172  RH  071%=      5-min Rain = 0
KMC1 150427Z 17003KT 23/17 A2999 RMK A01 T02260172  RH  072%=      5-min Rain = 0
KMC1 150428Z 16003KT 23/17 A2999 RMK A01 T02250172  RH  072%=      5-min Rain = 0
KMC1 150429Z 17003KT 23/17 A2999 RMK A01 T02250172  RH  072%=      5-min Rain = 0
KMC1 150430Z 16003KT 23/17 A2999 RMK A01 T02250172  RH  072%=      5-min Rain = 0
KMC1 150431Z 16003KT 23/17 A2998 RMK A01 T02260173  RH  072%=      5-min Rain = 0
KMC1 150432Z 16003KT 23/17 A2999 RMK A01 T02260173  RH  072%=      5-min Rain = 0
KMC1 150433Z 16003KT 23/17 A2999 RMK A01 T02260173  RH  072%=      5-min Rain = 0
KMC1 150434Z 16003KT 23/17 A2999 RMK A01 T02260173  RH  072%=      5-min Rain = 0
KMC1 150435Z 16003KT 23/17 A2999 RMK A01 T02260173  RH  072%=      5-min Rain = 0
KMC1 150436Z 16003KT 23/17 A2999 RMK A01 T02260173  RH  072%=      5-min Rain = 0
KMC1 150437Z 16003KT 23/17 A2999 RMK A01 T02260173  RH  072%=      5-min Rain = 0
KMC1 150438Z 16003KT 23/17 A2999 RMK A01 T02260173  RH  072%=      5-min Rain = 0
KMC1 150439Z 17003KT 23/17 A2999 RMK A01 T02270173  RH  072%=      5-min Rain = 0
KMC1 150440Z 17002KT 23/17 A2999 RMK A01 T02260173  RH  072%=      5-min Rain = 0
KMC1 150441Z 17003KT 23/17 A2999 RMK A01 T02270173  RH  072%=      5-min Rain = 0
KMC1 150442Z 18003KT 23/17 A2999 RMK A01 T02270173  RH  072%=      5-min Rain = 0
KMC1 150443Z 19002KT 23/17 A2999 RMK A01 T02280174  RH  072%=      5-min Rain = 0
KMC1 150444Z 19002KT 23/17 A2999 RMK A01 T02270174  RH  072%=      5-min Rain = 0
KMC1 150445Z 18002KT 23/17 A2999 RMK A01 T02270174  RH  072%=      5-min Rain = 0
KMC1 150446Z 18003KT 23/17 A2999 RMK A01 T02270174  RH  072%=      5-min Rain = 0
KMC1 150447Z 17002KT 23/17 A2999 RMK A01 T02280174  RH  072%=      5-min Rain = 0
KMC1 150448Z 18002KT 23/17 A2999 RMK A01 T02270174  RH  072%=      5-min Rain = 0
KMC1 150449Z 19002KT 23/17 A2999 RMK A01 T02270174  RH  072%=      5-min Rain = 0
KMC1 150450Z 19002KT 23/17 A2999 RMK A01 T02280174  RH  072%=      5-min Rain = 0
KMC1 150451Z 20002KT 23/17 A2999 RMK A01 T02270174  RH  072%=      5-min Rain = 0
KMC1 150452Z 20001KT 23/17 A2999 RMK A01 T02270174  RH  072%=      5-min Rain = 0
KMC1 150453Z 22001KT 23/18 A2999 RMK A01 T02270175  RH  072%=      5-min Rain = 0
KMC1 150454Z 23001KT 23/18 A2999 RMK A01 T02270175  RH  073%=      5-min Rain = 0
KMC1 150455Z 23001KT 23/17 A2999 RMK A01 T02250174  RH  073%=      5-min Rain = 0
KMC1 150456Z 24001KT 23/17 A2999 RMK A01 T02250174  RH  073%=      5-min Rain = 0
KMC1 150457Z 23001KT 22/17 A2999 RMK A01 T02240174  RH  073%=      5-min Rain = 0
KMC1 150458Z 23001KT 22/17 A2999 RMK A01 T02230173  RH  073%=      5-min Rain = 0
KMC1 150459Z 22001KT 22/17 A2999 RMK A01 T02230173  RH  073%=      5-min Rain = 0

Page generated in 0.1754 seconds.